GFSGBSN_prec_precacc24_156.txt.gz
Total_Precipitation_Accumulation
0.06 0.05 0.03 0.01 0.00 0.00 0.00 0.00 0.01 0.02 0.02 0.03 0.03 0.02 0.01 0.01 0.00 0.00 0.00 0.00 0.00 0.00 0.00 0.00 0.00 0.00 0.00 0.00 0.00 0.00 0.00 0.00 0.00 0.00 0.00 0.00 0.00 0.00 0.00 0.00 0.00 0.00 0.00 0.00 0.00 0.00 0.00
0.35 0.28 0.20 0.13 0.09 0.06 0.02 0.00 0.00 0.01 0.02 0.03 0.03 0.04 0.04 0.03 0.02 0.01 0.00 0.00 0.00 0.00 0.00 0.00 0.00 0.00 0.00 0.00 0.00 0.00 0.00 0.00 0.00 0.00 0.00 0.00 0.00 0.00 0.00 0.00 0.00 0.00 0.00 0.00 0.00 0.00 0.00
0.25 0.30 0.28 0.25 0.20 0.12 0.04 0.00 0.00 0.01 0.01 0.02 0.03 0.03 0.03 0.03 0.02 0.01 0.01 0.00 0.00 0.00 0.00 0.00 0.00 0.00 0.00 0.00 0.00 0.00 0.00 0.00 0.00 0.00 0.00 0.00 0.00 0.00 0.00 0.00 0.00 0.00 0.00 0.00 0.00 0.00 0.00
0.17 0.13 0.10 0.08 0.06 0.03 0.01 0.00 0.00 0.00 0.02 0.02 0.02 0.03 0.04 0.03 0.02 0.02 0.01 0.00 0.00 0.00 0.00 0.00 0.00 0.00 0.00 0.00 0.00 0.00 0.00 0.00 0.00 0.00 0.00 0.00 0.00 0.00 0.00 0.00 0.00 0.00 0.00 0.00 0.00 0.00 0.00
0.10 0.09 0.08 0.04 0.03 0.02 0.01 0.00 0.00 0.00 0.00 0.01 0.02 0.02 0.02 0.02 0.02 0.03 0.01 0.00 0.00 0.00 0.00 0.00 0.00 0.00 0.00 0.00 0.00 0.00 0.00 0.00 0.00 0.00 0.00 0.00 0.00 0.00 0.00 0.00 0.00 0.00 0.00 0.00 0.00 0.00 0.00
0.05 0.05 0.04 0.03 0.02 0.01 0.01 0.01 0.01 0.00 0.00 0.00 0.00 0.01 0.02 0.04 0.05 0.04 0.02 0.00 0.00 0.00 0.00 0.00 0.00 0.00 0.00 0.00 0.00 0.00 0.00 0.00 0.00 0.00 0.00 0.00 0.00 0.00 0.00 0.00 0.00 0.00 0.00 0.00 0.00 0.00 0.00
0.03 0.04 0.04 0.03 0.01 0.00 0.00 0.00 0.01 0.01 0.00 0.00 0.00 0.00 0.00 0.00 0.02 0.03 0.00 0.00 0.00 0.00 0.00 0.00 0.00 0.00 0.00 0.00 0.00 0.00 0.00 0.00 0.00 0.00 0.00 0.00 0.00 0.00 0.00 0.00 0.00 0.00 0.00 0.00 0.00 0.00 0.00
0.01 0.01 0.01 0.01 0.01 0.00 0.00 0.00 0.00 0.01 0.02 0.02 0.00 0.00 0.00 0.00 0.01 0.02 0.00 0.00 0.00 0.00 0.00 0.00 0.00 0.00 0.00 0.00 0.00 0.00 0.00 0.00 0.00 0.00 0.00 0.00 0.00 0.00 0.00 0.00 0.00 0.00 0.00 0.00 0.00 0.00 0.00
0.02 0.01 0.00 0.00 0.00 0.00 0.00 0.01 0.01 0.01 0.01 0.02 0.02 0.01 0.01 0.02 0.02 0.01 0.00 0.00 0.00 0.00 0.00 0.00 0.00 0.00 0.00 0.00 0.00 0.00 0.00 0.00 0.00 0.00 0.00 0.00 0.00 0.00 0.00 0.00 0.00 0.00 0.00 0.00 0.00 0.00 0.00
0.02 0.01 0.01 0.00 0.00 0.00 0.01 0.01 0.01 0.01 0.02 0.01 0.00 0.01 0.02 0.01 0.00 0.00 0.00 0.00 0.00 0.00 0.01 0.00 0.00 0.00 0.00 0.00 0.00 0.00 0.00 0.00 0.00 0.00 0.00 0.00 0.00 0.00 0.00 0.00 0.00 0.00 0.00 0.00 0.00 0.00 0.00
0.03 0.02 0.01 0.01 0.00 0.00 0.00 0.00 0.00 0.01 0.02 0.02 0.01 0.01 0.01 0.00 0.00 0.00 0.00 0.00 0.00 0.01 0.05 0.00 0.00 0.00 0.00 0.00 0.00 0.00 0.00 0.00 0.00 0.00 0.00 0.00 0.00 0.00 0.00 0.00 0.00 0.00 0.00 0.00 0.00 0.00 0.00
0.06 0.03 0.01 0.01 0.01 0.00 0.00 0.00 0.00 0.00 0.02 0.03 0.03 0.02 0.01 0.01 0.00 0.00 0.00 0.00 0.00 0.08 0.09 0.00 0.00 0.00 0.00 0.00 0.00 0.00 0.00 0.00 0.00 0.00 0.00 0.00 0.00 0.00 0.00 0.00 0.00 0.00 0.00 0.00 0.00 0.00 0.00
0.06 0.06 0.04 0.01 0.01 0.00 0.00 0.00 0.00 0.01 0.02 0.03 0.05 0.04 0.02 0.01 0.00 0.00 0.00 0.00 0.05 0.08 0.01 0.00 0.00 0.00 0.00 0.00 0.00 0.00 0.00 0.00 0.00 0.00 0.00 0.00 0.00 0.00 0.00 0.00 0.00 0.00 0.00 0.00 0.00 0.00 0.00
0.09 0.08 0.07 0.03 0.00 0.00 0.00 0.00 0.00 0.01 0.02 0.03 0.05 0.07 0.03 0.02 0.00 0.00 0.00 0.02 0.05 0.01 0.00 0.00 0.00 0.00 0.00 0.00 0.00 0.00 0.00 0.00 0.00 0.00 0.00 0.00 0.00 0.00 0.00 0.00 0.00 0.00 0.00 0.00 0.01 0.00 0.00
0.09 0.11 0.11 0.08 0.03 0.01 0.00 0.00 0.00 0.01 0.02 0.03 0.07 0.09 0.09 0.02 0.01 0.00 0.01 0.05 0.01 0.00 0.00 0.00 0.00 0.00 0.00 0.00 0.00 0.00 0.00 0.00 0.00 0.00 0.00 0.00 0.00 0.00 0.00 0.00 0.00 0.00 0.00 0.00 0.02 0.02 0.05
0.11 0.11 0.11 0.11 0.09 0.04 0.01 0.00 0.00 0.01 0.01 0.03 0.09 0.14 0.08 0.01 0.01 0.03 0.06 0.02 0.00 0.00 0.00 0.01 0.01 0.00 0.00 0.00 0.00 0.00 0.00 0.00 0.00 0.00 0.00 0.00 0.00 0.00 0.00 0.00 0.00 0.00 0.00 0.01 0.08 0.13 0.08
0.13 0.12 0.13 0.11 0.10 0.06 0.05 0.02 0.01 0.02 0.03 0.08 0.16 0.19 0.04 0.04 0.14 0.22 0.13 0.01 0.00 0.00 0.00 0.03 0.01 0.00 0.00 0.00 0.00 0.00 0.00 0.00 0.00 0.00 0.00 0.00 0.00 0.00 0.00 0.00 0.00 0.01 0.01 0.02 0.10 0.09 0.14
0.16 0.16 0.14 0.15 0.10 0.07 0.05 0.04 0.03 0.02 0.06 0.18 0.19 0.09 0.07 0.10 0.32 0.27 0.08 0.00 0.00 0.00 0.00 0.00 0.01 0.00 0.00 0.00 0.00 0.00 0.00 0.00 0.00 0.00 0.00 0.00 0.00 0.00 0.00 0.00 0.00 0.00 0.00 0.04 0.25 0.17 0.19
0.11 0.13 0.15 0.17 0.16 0.14 0.09 0.03 0.03 0.03 0.06 0.10 0.18 0.17 0.29 0.12 0.09 0.10 0.01 0.00 0.00 0.00 0.00 0.00 0.00 0.00 0.00 0.00 0.00 0.00 0.00 0.00 0.00 0.00 0.00 0.00 0.00 0.00 0.00 0.01 0.01 0.03 0.03 0.07 0.13 0.21 0.22
0.18 0.13 0.12 0.16 0.23 0.21 0.10 0.07 0.11 0.37 0.38 0.19 0.11 0.28 0.79 0.81 0.15 0.01 0.00 0.01 0.01 0.00 0.00 0.00 0.00 0.00 0.00 0.00 0.00 0.00 0.00 0.00 0.00 0.00 0.01 0.03 0.02 0.01 0.06 0.06 0.05 0.03 0.03 0.09 0.27 0.43 0.27
0.17 0.23 0.22 0.18 0.21 0.29 0.28 0.14 0.09 0.30 0.59 0.58 0.32 0.13 0.21 0.50 0.47 0.18 0.02 0.01 0.01 0.01 0.01 0.01 0.01 0.00 0.00 0.00 0.00 0.00 0.00 0.00 0.00 0.00 0.01 0.06 0.04 0.02 0.02 0.02 0.04 0.07 0.03 0.02 0.06 0.09 0.18
0.22 0.18 0.27 0.35 0.30 0.30 0.34 0.24 0.12 0.22 0.50 0.62 0.58 0.27 0.10 0.03 0.07 0.17 0.11 0.06 0.01 0.00 0.00 0.00 0.00 0.00 0.00 0.00 0.00 0.00 0.01 0.02 0.02 0.03 0.06 0.09 0.08 0.06 0.08 0.03 0.06 0.09 0.05 0.03 0.03 0.02 0.03
0.40 0.23 0.16 0.31 0.50 0.41 0.38 0.35 0.18 0.22 0.39 0.63 0.61 0.35 0.23 0.23 0.17 0.28 0.18 0.03 0.02 0.01 0.02 0.00 0.00 0.00 0.02 0.01 0.00 0.00 0.00 0.00 0.01 0.02 0.07 0.09 0.11 0.13 0.09 0.02 0.10 0.10 0.00 0.00 0.00 0.00 0.00
0.47 0.45 0.24 0.16 0.38 0.61 0.52 0.43 0.23 0.27 0.31 0.42 0.40 0.36 0.39 0.33 0.16 0.12 0.07 0.03 0.03 0.01 0.02 0.01 0.02 0.04 0.01 0.01 0.04 0.02 0.01 0.02 0.05 0.04 0.03 0.06 0.13 0.28 0.20 0.15 0.18 0.01 0.00 0.00 0.00 0.00 0.00
0.48 0.49 0.49 0.29 0.19 0.49 0.64 0.51 0.27 0.18 0.25 0.35 0.40 0.28 0.32 0.24 0.12 0.11 0.11 0.11 0.09 0.05 0.07 0.07 0.04 0.01 0.05 0.22 0.30 0.21 0.13 0.08 0.02 0.05 0.05 0.07 0.18 0.29 0.25 0.16 0.04 0.00 0.00 0.00 0.02 0.02 0.00
0.40 0.52 0.48 0.47 0.29 0.26 0.54 0.56 0.31 0.13 0.19 0.30 0.34 0.31 0.36 0.35 0.16 0.04 0.05 0.07 0.14 0.13 0.15 0.10 0.01 0.01 0.15 0.35 0.27 0.20 0.09 0.08 0.04 0.04 0.08 0.10 0.16 0.28 0.25 0.24 0.10 0.02 0.05 0.00 0.00 0.01 0.00
0.31 0.40 0.51 0.44 0.37 0.28 0.43 0.44 0.34 0.19 0.21 0.23 0.23 0.25 0.42 0.39 0.08 0.05 0.10 0.13 0.11 0.15 0.21 0.06 0.03 0.11 0.22 0.39 0.35 0.11 0.05 0.02 0.04 0.06 0.08 0.13 0.33 0.39 0.20 0.25 0.07 0.00 0.02 0.01 0.02 0.05 0.00
0.22 0.28 0.42 0.46 0.36 0.33 0.38 0.41 0.29 0.27 0.27 0.23 0.20 0.20 0.41 0.39 0.10 0.05 0.03 0.07 0.10 0.16 0.21 0.15 0.24 0.22 0.33 0.40 0.24 0.13 0.06 0.06 0.06 0.04 0.10 0.09 0.16 0.20 0.20 0.25 0.09 0.00 0.01 0.03 0.02 0.00 0.00
0.25 0.21 0.25 0.39 0.34 0.31 0.30 0.34 0.29 0.22 0.24 0.27 0.30 0.28 0.42 0.52 0.21 0.06 0.03 0.03 0.03 0.04 0.17 0.22 0.17 0.13 0.17 0.18 0.15 0.16 0.14 0.11 0.08 0.09 0.05 0.09 0.03 0.07 0.08 0.09 0.07 0.02 0.01 0.00 0.00 0.00 0.00

GFSGBSN_prec_precacc24_159.txt.gz
Total_Precipitation_Accumulation
0.07 0.05 0.04 0.02 0.01 0.00 0.00 0.01 0.01 0.01 0.02 0.03 0.02 0.01 0.01 0.01 0.00 0.00 0.00 0.00 0.00 0.00 0.00 0.00 0.00 0.00 0.00 0.00 0.00 0.00 0.00 0.00 0.00 0.00 0.00 0.00 0.00 0.00 0.00 0.00 0.00 0.00 0.00 0.00 0.00 0.00 0.00
0.40 0.32 0.30 0.28 0.26 0.21 0.11 0.04 0.02 0.01 0.00 0.02 0.02 0.03 0.04 0.03 0.02 0.01 0.00 0.00 0.00 0.00 0.00 0.00 0.00 0.00 0.00 0.00 0.00 0.00 0.00 0.00 0.00 0.00 0.00 0.00 0.00 0.00 0.00 0.00 0.00 0.00 0.00 0.00 0.00 0.00 0.00
0.27 0.31 0.30 0.29 0.27 0.21 0.13 0.08 0.06 0.01 0.00 0.01 0.02 0.03 0.03 0.03 0.02 0.01 0.01 0.00 0.00 0.00 0.00 0.00 0.00 0.00 0.00 0.00 0.00 0.00 0.00 0.00 0.00 0.00 0.00 0.00 0.00 0.00 0.00 0.00 0.00 0.00 0.00 0.00 0.00 0.00 0.00
0.20 0.17 0.14 0.11 0.09 0.09 0.08 0.07 0.05 0.01 0.00 0.00 0.01 0.02 0.03 0.03 0.02 0.02 0.01 0.00 0.00 0.00 0.00 0.00 0.00 0.00 0.00 0.00 0.00 0.00 0.00 0.00 0.00 0.00 0.00 0.00 0.00 0.00 0.00 0.00 0.00 0.00 0.00 0.00 0.00 0.00 0.00
0.11 0.11 0.11 0.09 0.07 0.05 0.04 0.02 0.00 0.00 0.00 0.00 0.00 0.01 0.01 0.01 0.02 0.03 0.01 0.00 0.00 0.00 0.00 0.00 0.00 0.00 0.00 0.00 0.00 0.00 0.00 0.00 0.00 0.00 0.00 0.00 0.00 0.00 0.00 0.00 0.00 0.00 0.00 0.00 0.00 0.00 0.00
0.06 0.07 0.07 0.06 0.06 0.05 0.02 0.01 0.01 0.00 0.00 0.00 0.00 0.00 0.01 0.02 0.03 0.03 0.02 0.00 0.00 0.00 0.00 0.00 0.00 0.00 0.00 0.00 0.00 0.00 0.00 0.00 0.00 0.00 0.00 0.00 0.00 0.00 0.00 0.00 0.00 0.00 0.00 0.00 0.00 0.00 0.00
0.03 0.04 0.05 0.06 0.06 0.05 0.04 0.01 0.01 0.01 0.00 0.00 0.00 0.00 0.00 0.00 0.02 0.03 0.00 0.00 0.00 0.00 0.00 0.00 0.00 0.00 0.00 0.00 0.00 0.00 0.00 0.00 0.00 0.00 0.00 0.00 0.00 0.00 0.00 0.00 0.00 0.00 0.00 0.00 0.00 0.00 0.00
0.01 0.01 0.01 0.02 0.02 0.02 0.02 0.02 0.01 0.01 0.02 0.02 0.00 0.00 0.00 0.00 0.00 0.00 0.00 0.00 0.00 0.00 0.00 0.00 0.00 0.00 0.00 0.00 0.00 0.00 0.00 0.00 0.00 0.00 0.00 0.00 0.00 0.00 0.00 0.00 0.00 0.00 0.00 0.00 0.00 0.00 0.00
0.02 0.01 0.00 0.00 0.00 0.00 0.00 0.01 0.01 0.00 0.00 0.01 0.02 0.01 0.00 0.00 0.00 0.00 0.00 0.00 0.00 0.00 0.00 0.00 0.00 0.00 0.00 0.00 0.00 0.00 0.00 0.00 0.00 0.00 0.00 0.00 0.00 0.00 0.00 0.00 0.00 0.00 0.00 0.00 0.00 0.00 0.00
0.03 0.02 0.02 0.00 0.00 0.00 0.01 0.00 0.00 0.01 0.02 0.01 0.00 0.01 0.01 0.00 0.00 0.00 0.00 0.00 0.00 0.00 0.00 0.00 0.00 0.00 0.00 0.00 0.00 0.00 0.00 0.00 0.00 0.00 0.00 0.00 0.00 0.00 0.00 0.00 0.00 0.00 0.00 0.00 0.00 0.00 0.00
0.03 0.02 0.02 0.01 0.01 0.00 0.00 0.00 0.00 0.00 0.02 0.02 0.01 0.01 0.00 0.00 0.00 0.00 0.00 0.00 0.00 0.00 0.00 0.00 0.00 0.00 0.00 0.00 0.00 0.00 0.00 0.00 0.00 0.00 0.00 0.00 0.00 0.00 0.00 0.00 0.00 0.00 0.00 0.00 0.00 0.00 0.00
0.06 0.03 0.02 0.02 0.01 0.00 0.00 0.00 0.00 0.00 0.01 0.03 0.03 0.02 0.00 0.00 0.00 0.00 0.00 0.00 0.00 0.00 0.01 0.00 0.00 0.00 0.00 0.00 0.00 0.00 0.00 0.00 0.00 0.00 0.00 0.00 0.00 0.00 0.00 0.00 0.00 0.00 0.00 0.00 0.00 0.00 0.00
0.06 0.06 0.05 0.02 0.01 0.00 0.00 0.00 0.00 0.00 0.01 0.03 0.05 0.04 0.01 0.00 0.00 0.00 0.00 0.00 0.00 0.00 0.00 0.00 0.00 0.00 0.00 0.00 0.00 0.00 0.00 0.00 0.00 0.00 0.00 0.00 0.00 0.00 0.00 0.00 0.00 0.00 0.00 0.00 0.00 0.00 0.00
0.09 0.08 0.07 0.04 0.03 0.02 0.01 0.00 0.00 0.00 0.01 0.02 0.04 0.06 0.02 0.01 0.00 0.00 0.00 0.00 0.00 0.00 0.00 0.00 0.00 0.00 0.00 0.00 0.00 0.00 0.00 0.00 0.00 0.00 0.00 0.00 0.00 0.00 0.00 0.00 0.00 0.00 0.00 0.00 0.01 0.00 0.00
0.09 0.11 0.11 0.10 0.07 0.04 0.03 0.00 0.00 0.01 0.02 0.02 0.06 0.08 0.08 0.02 0.00 0.00 0.00 0.02 0.00 0.00 0.00 0.00 0.00 0.00 0.00 0.00 0.00 0.00 0.00 0.00 0.00 0.00 0.00 0.00 0.00 0.00 0.00 0.00 0.00 0.00 0.00 0.00 0.02 0.02 0.05
0.11 0.11 0.11 0.12 0.12 0.09 0.04 0.01 0.00 0.01 0.01 0.02 0.08 0.10 0.06 0.01 0.01 0.03 0.04 0.01 0.00 0.00 0.00 0.00 0.00 0.00 0.00 0.00 0.00 0.00 0.00 0.00 0.00 0.00 0.00 0.00 0.00 0.00 0.00 0.00 0.00 0.00 0.00 0.01 0.08 0.13 0.08
0.13 0.12 0.13 0.11 0.11 0.10 0.09 0.04 0.01 0.02 0.03 0.06 0.10 0.10 0.03 0.01 0.08 0.15 0.08 0.01 0.00 0.00 0.00 0.00 0.00 0.00 0.00 0.00 0.00 0.00 0.00 0.00 0.00 0.00 0.00 0.00 0.00 0.00 0.00 0.00 0.00 0.01 0.01 0.02 0.10 0.10 0.15
0.16 0.16 0.14 0.15 0.11 0.10 0.10 0.06 0.03 0.02 0.05 0.12 0.11 0.06 0.07 0.06 0.16 0.14 0.04 0.00 0.00 0.00 0.00 0.00 0.00 0.00 0.00 0.00 0.00 0.00 0.00 0.00 0.00 0.00 0.00 0.00 0.00 0.00 0.00 0.00 0.00 0.00 0.00 0.04 0.23 0.17 0.19
0.11 0.13 0.15 0.17 0.16 0.13 0.14 0.08 0.06 0.02 0.04 0.08 0.10 0.06 0.18 0.15 0.06 0.04 0.01 0.00 0.00 0.00 0.00 0.00 0.00 0.00 0.00 0.00 0.00 0.00 0.00 0.00 0.00 0.00 0.00 0.00 0.00 0.00 0.00 0.00 0.01 0.03 0.03 0.07 0.12 0.21 0.22
0.18 0.13 0.12 0.16 0.22 0.22 0.15 0.21 0.13 0.06 0.11 0.14 0.08 0.08 0.36 0.54 0.07 0.00 0.00 0.00 0.00 0.00 0.00 0.00 0.00 0.00 0.00 0.00 0.00 0.00 0.00 0.00 0.00 0.00 0.01 0.03 0.01 0.00 0.01 0.01 0.04 0.03 0.03 0.09 0.27 0.44 0.28
0.17 0.23 0.22 0.18 0.21 0.29 0.34 0.27 0.25 0.27 0.26 0.26 0.18 0.05 0.06 0.29 0.24 0.07 0.01 0.00 0.00 0.00 0.00 0.01 0.01 0.00 0.00 0.00 0.00 0.00 0.00 0.00 0.00 0.00 0.01 0.05 0.03 0.02 0.02 0.02 0.04 0.07 0.03 0.02 0.06 0.09 0.18
0.21 0.18 0.27 0.35 0.30 0.29 0.41 0.48 0.45 0.22 0.36 0.43 0.25 0.15 0.08 0.02 0.02 0.07 0.07 0.04 0.00 0.00 0.00 0.00 0.00 0.00 0.00 0.00 0.00 0.00 0.01 0.02 0.02 0.03 0.06 0.09 0.08 0.07 0.08 0.03 0.06 0.09 0.05 0.03 0.03 0.02 0.02
0.40 0.23 0.16 0.31 0.49 0.40 0.39 0.51 0.54 0.50 0.49 0.66 0.48 0.27 0.21 0.22 0.16 0.22 0.15 0.03 0.00 0.01 0.02 0.00 0.00 0.00 0.02 0.01 0.00 0.00 0.00 0.00 0.01 0.02 0.07 0.09 0.11 0.13 0.10 0.02 0.10 0.10 0.00 0.00 0.00 0.00 0.00
0.46 0.45 0.24 0.16 0.36 0.56 0.50 0.46 0.51 0.51 0.52 0.31 0.31 0.32 0.37 0.32 0.16 0.11 0.06 0.03 0.03 0.01 0.02 0.01 0.02 0.04 0.01 0.01 0.04 0.02 0.01 0.02 0.03 0.03 0.02 0.05 0.12 0.25 0.19 0.15 0.17 0.01 0.00 0.00 0.00 0.00 0.01
0.47 0.49 0.48 0.29 0.19 0.45 0.58 0.51 0.46 0.49 0.48 0.30 0.25 0.23 0.30 0.24 0.11 0.10 0.11 0.10 0.08 0.05 0.07 0.06 0.04 0.01 0.05 0.22 0.30 0.21 0.12 0.07 0.02 0.03 0.03 0.04 0.15 0.29 0.26 0.15 0.04 0.00 0.00 0.00 0.02 0.03 0.01
0.39 0.52 0.48 0.47 0.29 0.25 0.51 0.56 0.47 0.43 0.41 0.36 0.27 0.24 0.31 0.30 0.10 0.02 0.04 0.06 0.12 0.13 0.14 0.06 0.01 0.01 0.15 0.35 0.27 0.20 0.09 0.08 0.04 0.04 0.08 0.10 0.16 0.30 0.26 0.23 0.07 0.02 0.05 0.00 0.01 0.03 0.00
0.31 0.41 0.51 0.44 0.36 0.27 0.39 0.43 0.52 0.45 0.42 0.35 0.26 0.27 0.42 0.36 0.07 0.03 0.06 0.07 0.08 0.14 0.17 0.04 0.04 0.11 0.22 0.39 0.35 0.11 0.05 0.02 0.04 0.06 0.08 0.14 0.33 0.41 0.22 0.27 0.06 0.00 0.02 0.02 0.04 0.06 0.00
0.22 0.27 0.42 0.47 0.36 0.30 0.34 0.41 0.41 0.46 0.49 0.41 0.26 0.24 0.41 0.37 0.07 0.04 0.03 0.06 0.09 0.15 0.22 0.17 0.26 0.25 0.35 0.43 0.26 0.14 0.06 0.06 0.06 0.04 0.12 0.17 0.29 0.26 0.22 0.28 0.09 0.00 0.04 0.07 0.05 0.00 0.00
0.26 0.22 0.25 0.39 0.34 0.30 0.29 0.43 0.45 0.40 0.45 0.39 0.32 0.25 0.39 0.54 0.17 0.05 0.02 0.02 0.02 0.05 0.17 0.23 0.20 0.16 0.20 0.20 0.19 0.19 0.17 0.14 0.12 0.13 0.08 0.14 0.11 0.11 0.09 0.10 0.08 0.03 0.05 0.05 0.02 0.00 0.00

GFSGBSN_prec_precacc24_162.txt.gz
Total_Precipitation_Accumulation
0.07 0.05 0.04 0.02 0.01 0.00 0.00 0.00 0.01 0.01 0.01 0.02 0.02 0.01 0.01 0.01 0.00 0.00 0.00 0.00 0.00 0.00 0.00 0.00 0.00 0.00 0.00 0.00 0.00 0.00 0.00 0.00 0.00 0.00 0.00 0.00 0.00 0.00 0.00 0.00 0.00 0.00 0.00 0.00 0.00 0.00 0.00
0.41 0.34 0.32 0.30 0.27 0.25 0.22 0.18 0.13 0.03 0.01 0.00 0.01 0.02 0.03 0.03 0.02 0.01 0.00 0.00 0.00 0.00 0.00 0.00 0.00 0.00 0.00 0.00 0.00 0.00 0.00 0.00 0.00 0.00 0.00 0.00 0.00 0.00 0.00 0.00 0.00 0.00 0.00 0.00 0.00 0.00 0.00
0.28 0.33 0.32 0.30 0.28 0.22 0.17 0.13 0.09 0.05 0.02 0.00 0.01 0.01 0.02 0.02 0.02 0.01 0.01 0.00 0.00 0.00 0.00 0.00 0.00 0.00 0.00 0.00 0.00 0.00 0.00 0.00 0.00 0.00 0.00 0.00 0.00 0.00 0.00 0.00 0.00 0.00 0.00 0.00 0.00 0.00 0.00
0.20 0.18 0.15 0.14 0.12 0.11 0.10 0.09 0.07 0.04 0.01 0.00 0.00 0.01 0.02 0.02 0.02 0.02 0.01 0.00 0.00 0.00 0.00 0.00 0.00 0.00 0.00 0.00 0.00 0.00 0.00 0.00 0.00 0.00 0.00 0.00 0.00 0.00 0.00 0.00 0.00 0.00 0.00 0.00 0.00 0.00 0.00
0.11 0.11 0.12 0.10 0.09 0.08 0.07 0.07 0.03 0.01 0.00 0.00 0.00 0.00 0.01 0.01 0.02 0.03 0.01 0.00 0.00 0.00 0.00 0.00 0.00 0.00 0.00 0.00 0.00 0.00 0.00 0.00 0.00 0.00 0.00 0.00 0.00 0.00 0.00 0.00 0.00 0.00 0.00 0.00 0.00 0.00 0.00
0.06 0.07 0.08 0.08 0.08 0.08 0.05 0.01 0.00 0.00 0.00 0.00 0.00 0.00 0.00 0.02 0.02 0.02 0.01 0.00 0.00 0.00 0.00 0.00 0.00 0.00 0.00 0.00 0.00 0.00 0.00 0.00 0.00 0.00 0.00 0.00 0.00 0.00 0.00 0.00 0.00 0.00 0.00 0.00 0.00 0.00 0.00
0.04 0.04 0.05 0.07 0.09 0.11 0.11 0.07 0.03 0.02 0.01 0.00 0.00 0.00 0.00 0.00 0.02 0.01 0.00 0.00 0.00 0.00 0.00 0.00 0.00 0.00 0.00 0.00 0.00 0.00 0.00 0.00 0.00 0.00 0.00 0.00 0.00 0.00 0.00 0.00 0.00 0.00 0.00 0.00 0.00 0.00 0.00
0.01 0.01 0.01 0.02 0.02 0.03 0.04 0.05 0.04 0.02 0.02 0.02 0.00 0.00 0.00 0.00 0.00 0.00 0.00 0.00 0.00 0.00 0.00 0.00 0.00 0.00 0.00 0.00 0.00 0.00 0.00 0.00 0.00 0.00 0.00 0.00 0.00 0.00 0.00 0.00 0.00 0.00 0.00 0.00 0.00 0.00 0.00
0.03 0.02 0.01 0.00 0.00 0.00 0.00 0.01 0.01 0.00 0.00 0.01 0.01 0.01 0.00 0.00 0.00 0.00 0.00 0.00 0.00 0.00 0.00 0.00 0.00 0.00 0.00 0.00 0.00 0.00 0.00 0.00 0.00 0.00 0.00 0.00 0.00 0.00 0.00 0.00 0.00 0.00 0.00 0.00 0.00 0.00 0.00
0.03 0.02 0.02 0.01 0.00 0.00 0.01 0.00 0.00 0.00 0.01 0.01 0.00 0.01 0.00 0.00 0.00 0.00 0.00 0.00 0.00 0.00 0.00 0.00 0.00 0.00 0.00 0.00 0.00 0.00 0.00 0.00 0.00 0.00 0.00 0.00 0.00 0.00 0.00 0.00 0.00 0.00 0.00 0.00 0.00 0.00 0.00
0.03 0.02 0.02 0.02 0.02 0.01 0.00 0.00 0.00 0.00 0.01 0.01 0.01 0.01 0.00 0.00 0.00 0.00 0.00 0.00 0.00 0.00 0.00 0.00 0.00 0.00 0.00 0.00 0.00 0.00 0.00 0.00 0.00 0.00 0.00 0.00 0.00 0.00 0.00 0.00 0.00 0.00 0.00 0.00 0.00 0.00 0.00
0.06 0.03 0.02 0.01 0.01 0.00 0.00 0.00 0.00 0.00 0.01 0.02 0.02 0.02 0.00 0.00 0.00 0.00 0.00 0.00 0.00 0.00 0.00 0.00 0.00 0.00 0.00 0.00 0.00 0.00 0.00 0.00 0.00 0.00 0.00 0.00 0.00 0.00 0.00 0.00 0.00 0.00 0.00 0.00 0.00 0.00 0.00
0.06 0.06 0.05 0.02 0.02 0.01 0.00 0.00 0.00 0.00 0.01 0.02 0.04 0.03 0.00 0.00 0.00 0.00 0.00 0.00 0.00 0.00 0.00 0.00 0.00 0.00 0.00 0.00 0.00 0.00 0.00 0.00 0.00 0.00 0.00 0.00 0.00 0.00 0.00 0.00 0.00 0.00 0.00 0.00 0.00 0.00 0.00
0.08 0.08 0.07 0.05 0.03 0.03 0.02 0.01 0.00 0.00 0.00 0.01 0.03 0.06 0.02 0.00 0.00 0.00 0.00 0.00 0.00 0.00 0.00 0.00 0.00 0.00 0.00 0.00 0.00 0.00 0.00 0.00 0.00 0.00 0.00 0.00 0.00 0.00 0.00 0.00 0.00 0.00 0.00 0.00 0.01 0.00 0.00
0.09 0.10 0.11 0.10 0.07 0.05 0.05 0.04 0.01 0.00 0.00 0.01 0.04 0.07 0.07 0.01 0.00 0.00 0.00 0.00 0.00 0.00 0.00 0.00 0.00 0.00 0.00 0.00 0.00 0.00 0.00 0.00 0.00 0.00 0.00 0.00 0.00 0.00 0.00 0.00 0.00 0.00 0.00 0.00 0.02 0.02 0.05
0.10 0.10 0.11 0.11 0.12 0.10 0.07 0.06 0.04 0.02 0.01 0.02 0.06 0.09 0.05 0.00 0.00 0.02 0.01 0.00 0.00 0.00 0.00 0.00 0.00 0.00 0.00 0.00 0.00 0.00 0.00 0.00 0.00 0.00 0.00 0.00 0.00 0.00 0.00 0.00 0.00 0.00 0.00 0.01 0.07 0.13 0.08
0.13 0.11 0.13 0.11 0.11 0.10 0.11 0.08 0.06 0.03 0.02 0.04 0.07 0.08 0.02 0.01 0.03 0.08 0.03 0.00 0.00 0.00 0.00 0.00 0.00 0.00 0.00 0.00 0.00 0.00 0.00 0.00 0.00 0.00 0.00 0.00 0.00 0.00 0.00 0.00 0.00 0.00 0.01 0.02 0.10 0.10 0.15
0.17 0.16 0.14 0.15 0.11 0.10 0.10 0.08 0.08 0.07 0.07 0.10 0.07 0.04 0.07 0.05 0.05 0.05 0.02 0.00 0.00 0.00 0.00 0.00 0.00 0.00 0.00 0.00 0.00 0.00 0.00 0.00 0.00 0.00 0.00 0.00 0.00 0.00 0.00 0.00 0.00 0.00 0.00 0.04 0.23 0.17 0.19
0.11 0.13 0.15 0.17 0.16 0.13 0.13 0.10 0.11 0.12 0.11 0.08 0.07 0.05 0.15 0.17 0.04 0.02 0.00 0.00 0.00 0.00 0.00 0.00 0.00 0.00 0.00 0.00 0.00 0.00 0.00 0.00 0.00 0.00 0.00 0.00 0.00 0.00 0.00 0.00 0.01 0.02 0.02 0.07 0.12 0.20 0.21
0.18 0.13 0.12 0.16 0.22 0.21 0.15 0.22 0.20 0.18 0.16 0.16 0.09 0.06 0.22 0.35 0.05 0.00 0.00 0.00 0.00 0.00 0.00 0.00 0.00 0.00 0.00 0.00 0.00 0.00 0.00 0.00 0.00 0.00 0.00 0.02 0.00 0.00 0.00 0.01 0.04 0.03 0.03 0.09 0.27 0.44 0.27
0.16 0.22 0.22 0.18 0.20 0.29 0.34 0.27 0.29 0.41 0.37 0.41 0.27 0.06 0.03 0.16 0.15 0.03 0.00 0.00 0.00 0.00 0.00 0.00 0.00 0.00 0.00 0.00 0.00 0.00 0.00 0.00 0.00 0.00 0.01 0.05 0.02 0.00 0.00 0.01 0.03 0.04 0.02 0.02 0.06 0.09 0.18
0.21 0.17 0.26 0.35 0.30 0.29 0.41 0.48 0.48 0.36 0.68 1.09 0.48 0.05 0.01 0.00 0.00 0.02 0.02 0.01 0.00 0.00 0.00 0.00 0.00 0.00 0.00 0.00 0.00 0.00 0.00 0.01 0.01 0.01 0.05 0.09 0.07 0.05 0.05 0.02 0.06 0.08 0.05 0.03 0.03 0.02 0.02
0.39 0.20 0.15 0.31 0.49 0.40 0.39 0.51 0.54 0.69 0.97 1.33 0.58 0.13 0.08 0.07 0.03 0.08 0.05 0.01 0.00 0.02 0.03 0.00 0.00 0.00 0.02 0.01 0.00 0.00 0.00 0.00 0.01 0.02 0.07 0.09 0.11 0.13 0.09 0.02 0.09 0.10 0.00 0.00 0.00 0.00 0.00
0.45 0.42 0.23 0.16 0.36 0.55 0.50 0.46 0.52 0.57 0.99 0.80 0.26 0.26 0.25 0.13 0.04 0.04 0.02 0.02 0.02 0.01 0.02 0.02 0.02 0.04 0.01 0.01 0.04 0.02 0.01 0.02 0.02 0.02 0.02 0.05 0.11 0.24 0.19 0.14 0.16 0.01 0.00 0.00 0.00 0.00 0.01
0.45 0.45 0.46 0.29 0.19 0.44 0.54 0.51 0.47 0.52 0.70 0.59 0.40 0.45 0.37 0.19 0.05 0.05 0.06 0.08 0.07 0.04 0.06 0.07 0.04 0.01 0.05 0.22 0.30 0.20 0.11 0.06 0.01 0.00 0.01 0.03 0.12 0.27 0.23 0.14 0.03 0.00 0.00 0.00 0.02 0.03 0.01
0.33 0.49 0.47 0.46 0.28 0.25 0.48 0.51 0.47 0.44 0.61 0.65 0.44 0.45 0.46 0.30 0.10 0.02 0.03 0.06 0.11 0.12 0.11 0.04 0.01 0.01 0.15 0.35 0.27 0.19 0.07 0.07 0.03 0.03 0.03 0.06 0.13 0.28 0.25 0.24 0.07 0.02 0.05 0.00 0.01 0.03 0.01
0.24 0.35 0.50 0.44 0.36 0.26 0.38 0.41 0.51 0.44 0.47 0.66 0.51 0.41 0.58 0.39 0.06 0.03 0.06 0.06 0.09 0.13 0.16 0.04 0.04 0.10 0.22 0.39 0.34 0.10 0.04 0.02 0.04 0.06 0.07 0.11 0.32 0.41 0.22 0.29 0.06 0.00 0.02 0.02 0.04 0.07 0.00
0.17 0.23 0.41 0.47 0.35 0.29 0.33 0.40 0.40 0.42 0.45 0.60 0.50 0.41 0.56 0.39 0.06 0.02 0.02 0.05 0.07 0.14 0.21 0.16 0.24 0.22 0.35 0.43 0.26 0.13 0.06 0.06 0.05 0.04 0.12 0.18 0.32 0.31 0.29 0.37 0.11 0.00 0.04 0.07 0.06 0.01 0.00
0.19 0.20 0.25 0.40 0.34 0.30 0.29 0.42 0.42 0.35 0.44 0.52 0.59 0.44 0.54 0.56 0.15 0.03 0.02 0.02 0.02 0.04 0.17 0.23 0.21 0.16 0.21 0.21 0.21 0.22 0.20 0.15 0.12 0.13 0.10 0.16 0.17 0.23 0.13 0.11 0.08 0.03 0.06 0.07 0.03 0.00 0.00

GFSGBSN_prec_precacc24_165.txt.gz
Total_Precipitation_Accumulation
0.07 0.05 0.04 0.02 0.01 0.00 0.00 0.00 0.00 0.00 0.00 0.01 0.02 0.01 0.01 0.01 0.00 0.00 0.00 0.00 0.00 0.00 0.00 0.00 0.00 0.00 0.00 0.00 0.00 0.00 0.00 0.00 0.00 0.00 0.00 0.00 0.00 0.00 0.00 0.00 0.00 0.00 0.00 0.00 0.00 0.00 0.00
0.41 0.34 0.32 0.30 0.28 0.25 0.22 0.19 0.14 0.06 0.02 0.00 0.01 0.02 0.03 0.02 0.02 0.01 0.00 0.00 0.00 0.00 0.00 0.00 0.00 0.00 0.00 0.00 0.00 0.00 0.00 0.00 0.00 0.00 0.00 0.00 0.00 0.00 0.00 0.00 0.00 0.00 0.00 0.00 0.00 0.00 0.00
0.28 0.33 0.32 0.30 0.28 0.22 0.17 0.13 0.09 0.06 0.03 0.00 0.00 0.00 0.01 0.02 0.02 0.01 0.01 0.00 0.00 0.00 0.00 0.00 0.00 0.00 0.00 0.00 0.00 0.00 0.00 0.00 0.00 0.00 0.00 0.00 0.00 0.00 0.00 0.00 0.00 0.00 0.00 0.00 0.00 0.00 0.00
0.20 0.17 0.15 0.14 0.13 0.13 0.12 0.10 0.09 0.06 0.02 0.00 0.00 0.00 0.01 0.01 0.02 0.01 0.01 0.00 0.00 0.00 0.00 0.00 0.00 0.00 0.00 0.00 0.00 0.00 0.00 0.00 0.00 0.00 0.00 0.00 0.00 0.00 0.00 0.00 0.00 0.00 0.00 0.00 0.00 0.00 0.00
0.11 0.11 0.12 0.10 0.10 0.09 0.09 0.09 0.05 0.01 0.00 0.00 0.00 0.00 0.00 0.00 0.01 0.02 0.01 0.00 0.00 0.00 0.00 0.00 0.00 0.00 0.00 0.00 0.00 0.00 0.00 0.00 0.00 0.00 0.00 0.00 0.00 0.00 0.00 0.00 0.00 0.00 0.00 0.00 0.00 0.00 0.00
0.06 0.07 0.08 0.08 0.09 0.08 0.06 0.02 0.01 0.00 0.00 0.00 0.00 0.00 0.00 0.01 0.02 0.01 0.00 0.00 0.00 0.00 0.00 0.00 0.00 0.00 0.00 0.00 0.00 0.00 0.00 0.00 0.00 0.00 0.00 0.00 0.00 0.00 0.00 0.00 0.00 0.00 0.00 0.00 0.00 0.00 0.00
0.04 0.04 0.05 0.07 0.09 0.12 0.11 0.08 0.04 0.03 0.02 0.01 0.00 0.00 0.00 0.00 0.02 0.01 0.00 0.00 0.00 0.00 0.00 0.00 0.00 0.00 0.00 0.00 0.00 0.00 0.00 0.00 0.00 0.00 0.00 0.00 0.00 0.00 0.00 0.00 0.00 0.00 0.00 0.00 0.00 0.00 0.00
0.01 0.01 0.01 0.02 0.02 0.03 0.04 0.05 0.04 0.03 0.02 0.01 0.00 0.00 0.00 0.00 0.00 0.00 0.00 0.00 0.00 0.00 0.00 0.00 0.00 0.00 0.00 0.00 0.00 0.00 0.00 0.00 0.00 0.00 0.00 0.00 0.00 0.00 0.00 0.00 0.00 0.00 0.00 0.00 0.00 0.00 0.00
0.03 0.01 0.01 0.00 0.00 0.00 0.00 0.01 0.00 0.00 0.00 0.00 0.00 0.00 0.00 0.00 0.00 0.00 0.00 0.00 0.00 0.00 0.00 0.00 0.00 0.00 0.00 0.00 0.00 0.00 0.00 0.00 0.00 0.00 0.00 0.00 0.00 0.00 0.00 0.00 0.00 0.00 0.00 0.00 0.00 0.00 0.00
0.03 0.02 0.02 0.02 0.01 0.00 0.01 0.00 0.00 0.00 0.00 0.01 0.00 0.00 0.00 0.00 0.00 0.00 0.00 0.00 0.00 0.00 0.00 0.00 0.00 0.00 0.00 0.00 0.00 0.00 0.00 0.00 0.00 0.00 0.00 0.00 0.00 0.00 0.00 0.00 0.00 0.00 0.00 0.00 0.00 0.00 0.00
0.04 0.04 0.03 0.02 0.02 0.01 0.00 0.00 0.00 0.00 0.01 0.01 0.00 0.01 0.00 0.00 0.00 0.00 0.00 0.00 0.00 0.00 0.00 0.00 0.00 0.00 0.00 0.00 0.00 0.00 0.00 0.00 0.00 0.00 0.00 0.00 0.00 0.00 0.00 0.00 0.00 0.00 0.00 0.00 0.00 0.00 0.00
0.05 0.03 0.02 0.02 0.02 0.01 0.00 0.00 0.00 0.00 0.01 0.02 0.01 0.01 0.00 0.00 0.00 0.00 0.00 0.00 0.00 0.00 0.00 0.00 0.00 0.00 0.00 0.00 0.00 0.00 0.00 0.00 0.00 0.00 0.00 0.00 0.00 0.00 0.00 0.00 0.00 0.00 0.00 0.00 0.00 0.00 0.00
0.05 0.06 0.05 0.02 0.03 0.03 0.01 0.00 0.00 0.00 0.00 0.02 0.03 0.02 0.00 0.00 0.00 0.00 0.00 0.00 0.00 0.00 0.00 0.00 0.00 0.00 0.00 0.00 0.00 0.00 0.00 0.00 0.00 0.00 0.00 0.00 0.00 0.00 0.00 0.00 0.00 0.00 0.00 0.00 0.00 0.00 0.00
0.07 0.07 0.07 0.04 0.03 0.03 0.02 0.02 0.00 0.00 0.00 0.01 0.03 0.03 0.00 0.00 0.00 0.00 0.00 0.00 0.00 0.00 0.00 0.00 0.00 0.00 0.00 0.00 0.00 0.00 0.00 0.00 0.00 0.00 0.00 0.00 0.00 0.00 0.00 0.00 0.00 0.00 0.00 0.00 0.01 0.00 0.00
0.08 0.08 0.09 0.09 0.07 0.05 0.05 0.05 0.03 0.02 0.00 0.01 0.03 0.05 0.04 0.00 0.00 0.00 0.00 0.00 0.00 0.00 0.00 0.00 0.00 0.00 0.00 0.00 0.00 0.00 0.00 0.00 0.00 0.00 0.00 0.00 0.00 0.00 0.00 0.00 0.00 0.00 0.00 0.00 0.03 0.02 0.05
0.10 0.09 0.10 0.10 0.11 0.09 0.07 0.06 0.07 0.06 0.04 0.02 0.05 0.08 0.03 0.00 0.00 0.01 0.01 0.00 0.00 0.00 0.00 0.00 0.00 0.00 0.00 0.00 0.00 0.00 0.00 0.00 0.00 0.00 0.00 0.00 0.00 0.00 0.00 0.00 0.00 0.00 0.00 0.01 0.07 0.12 0.08
0.12 0.10 0.12 0.10 0.10 0.10 0.11 0.08 0.08 0.09 0.08 0.06 0.08 0.08 0.02 0.01 0.02 0.04 0.01 0.00 0.00 0.00 0.00 0.00 0.00 0.00 0.00 0.00 0.00 0.00 0.00 0.00 0.00 0.00 0.00 0.00 0.00 0.00 0.00 0.00 0.00 0.00 0.01 0.02 0.09 0.10 0.15
0.15 0.15 0.13 0.14 0.10 0.09 0.10 0.08 0.08 0.13 0.19 0.13 0.08 0.04 0.07 0.05 0.04 0.02 0.01 0.00 0.00 0.00 0.00 0.00 0.00 0.00 0.00 0.00 0.00 0.00 0.00 0.00 0.00 0.00 0.00 0.00 0.00 0.00 0.00 0.00 0.00 0.00 0.00 0.03 0.20 0.16 0.19
0.10 0.12 0.14 0.16 0.15 0.11 0.13 0.09 0.10 0.16 0.33 0.19 0.08 0.04 0.13 0.16 0.03 0.01 0.00 0.00 0.00 0.00 0.00 0.00 0.00 0.00 0.00 0.00 0.00 0.00 0.00 0.00 0.00 0.00 0.00 0.00 0.00 0.00 0.00 0.00 0.01 0.00 0.01 0.07 0.12 0.20 0.20
0.17 0.13 0.12 0.15 0.21 0.20 0.15 0.21 0.20 0.20 0.28 0.32 0.32 0.12 0.18 0.27 0.04 0.00 0.00 0.00 0.00 0.00 0.00 0.00 0.00 0.00 0.00 0.00 0.00 0.00 0.00 0.00 0.00 0.00 0.00 0.02 0.00 0.00 0.00 0.01 0.03 0.03 0.01 0.06 0.23 0.42 0.27
0.16 0.22 0.21 0.17 0.19 0.27 0.33 0.26 0.30 0.43 0.45 0.59 0.57 0.23 0.04 0.12 0.09 0.03 0.00 0.00 0.00 0.00 0.00 0.00 0.00 0.00 0.00 0.00 0.00 0.00 0.00 0.00 0.00 0.00 0.01 0.05 0.01 0.00 0.00 0.00 0.02 0.02 0.01 0.01 0.04 0.08 0.17
0.22 0.17 0.27 0.34 0.28 0.27 0.39 0.47 0.48 0.37 0.73 1.43 0.86 0.24 0.04 0.00 0.00 0.02 0.02 0.01 0.00 0.00 0.00 0.00 0.00 0.00 0.00 0.00 0.00 0.00 0.00 0.01 0.01 0.01 0.04 0.06 0.04 0.03 0.03 0.01 0.02 0.03 0.03 0.02 0.03 0.02 0.02
0.38 0.20 0.14 0.29 0.47 0.38 0.38 0.50 0.53 0.70 1.04 1.73 0.84 0.27 0.15 0.07 0.02 0.02 0.01 0.00 0.00 0.02 0.02 0.00 0.00 0.00 0.02 0.00 0.00 0.00 0.00 0.00 0.01 0.02 0.03 0.04 0.05 0.10 0.08 0.02 0.07 0.06 0.00 0.00 0.00 0.00 0.00
0.45 0.41 0.22 0.14 0.34 0.54 0.50 0.45 0.50 0.56 1.02 1.00 0.55 0.40 0.44 0.20 0.03 0.01 0.00 0.00 0.00 0.01 0.01 0.02 0.03 0.05 0.01 0.01 0.03 0.02 0.01 0.02 0.02 0.02 0.01 0.03 0.08 0.21 0.17 0.13 0.14 0.01 0.00 0.00 0.00 0.00 0.01
0.44 0.45 0.45 0.25 0.17 0.44 0.53 0.50 0.45 0.51 0.70 0.66 0.51 0.79 0.78 0.36 0.06 0.03 0.01 0.00 0.01 0.01 0.02 0.04 0.02 0.01 0.04 0.20 0.28 0.17 0.11 0.06 0.01 0.00 0.00 0.01 0.09 0.25 0.22 0.13 0.03 0.00 0.00 0.00 0.02 0.03 0.01
0.32 0.47 0.45 0.42 0.26 0.24 0.48 0.49 0.45 0.43 0.60 0.68 0.51 0.56 0.80 0.51 0.14 0.02 0.02 0.03 0.04 0.05 0.04 0.02 0.01 0.00 0.14 0.34 0.25 0.17 0.06 0.06 0.02 0.02 0.02 0.03 0.09 0.25 0.22 0.22 0.06 0.02 0.05 0.00 0.01 0.03 0.01
0.24 0.32 0.46 0.41 0.33 0.25 0.37 0.40 0.47 0.41 0.47 0.68 0.58 0.49 0.76 0.59 0.09 0.03 0.06 0.05 0.07 0.11 0.13 0.02 0.03 0.10 0.22 0.38 0.33 0.09 0.04 0.02 0.03 0.05 0.07 0.07 0.17 0.29 0.19 0.28 0.06 0.00 0.02 0.02 0.04 0.07 0.00
0.18 0.23 0.38 0.44 0.34 0.29 0.32 0.39 0.39 0.40 0.44 0.60 0.54 0.55 0.78 0.57 0.10 0.02 0.02 0.05 0.07 0.14 0.21 0.15 0.22 0.20 0.34 0.42 0.25 0.13 0.06 0.05 0.05 0.04 0.12 0.17 0.29 0.25 0.28 0.39 0.11 0.00 0.04 0.07 0.06 0.01 0.00
0.21 0.22 0.26 0.40 0.35 0.29 0.28 0.40 0.40 0.33 0.42 0.51 0.61 0.51 0.76 0.78 0.24 0.04 0.01 0.01 0.02 0.04 0.17 0.24 0.22 0.18 0.23 0.22 0.21 0.22 0.20 0.15 0.12 0.13 0.12 0.18 0.22 0.39 0.31 0.19 0.10 0.03 0.06 0.08 0.03 0.01 0.00

GFSGBSN_prec_precacc24_168.txt.gz
Total_Precipitation_Accumulation
0.07 0.05 0.04 0.02 0.01 0.00 0.00 0.00 0.01 0.00 0.00 0.00 0.00 0.01 0.01 0.01 0.00 0.00 0.00 0.00 0.00 0.00 0.00 0.00 0.00 0.00 0.00 0.00 0.00 0.00 0.00 0.00 0.00 0.00 0.00 0.00 0.00 0.00 0.00 0.00 0.00 0.00 0.00 0.00 0.00 0.00 0.00
0.41 0.34 0.32 0.30 0.28 0.25 0.23 0.19 0.14 0.07 0.02 0.00 0.00 0.00 0.01 0.01 0.01 0.01 0.00 0.00 0.00 0.00 0.00 0.00 0.00 0.00 0.00 0.00 0.00 0.00 0.00 0.00 0.00 0.00 0.00 0.00 0.00 0.00 0.00 0.00 0.00 0.00 0.00 0.00 0.00 0.00 0.00
0.28 0.33 0.32 0.31 0.28 0.23 0.18 0.13 0.10 0.08 0.03 0.00 0.00 0.00 0.00 0.00 0.00 0.00 0.00 0.00 0.00 0.00 0.00 0.00 0.00 0.00 0.00 0.00 0.00 0.00 0.00 0.00 0.00 0.00 0.00 0.00 0.00 0.00 0.00 0.00 0.00 0.00 0.00 0.00 0.00 0.00 0.00
0.20 0.17 0.15 0.14 0.13 0.13 0.13 0.12 0.10 0.07 0.02 0.00 0.00 0.00 0.00 0.00 0.00 0.01 0.00 0.00 0.00 0.00 0.00 0.00 0.00 0.00 0.00 0.00 0.00 0.00 0.00 0.00 0.00 0.00 0.00 0.00 0.00 0.00 0.00 0.00 0.00 0.00 0.00 0.00 0.00 0.00 0.00
0.11 0.11 0.12 0.10 0.10 0.10 0.10 0.09 0.05 0.02 0.00 0.00 0.00 0.00 0.00 0.00 0.00 0.01 0.01 0.00 0.00 0.00 0.00 0.00 0.00 0.00 0.00 0.00 0.00 0.00 0.00 0.00 0.00 0.00 0.00 0.00 0.00 0.00 0.00 0.00 0.00 0.00 0.00 0.00 0.00 0.00 0.00
0.05 0.07 0.08 0.08 0.09 0.09 0.06 0.03 0.01 0.00 0.00 0.00 0.00 0.00 0.00 0.00 0.01 0.01 0.00 0.00 0.00 0.00 0.00 0.00 0.00 0.00 0.00 0.00 0.00 0.00 0.00 0.00 0.00 0.00 0.00 0.00 0.00 0.00 0.00 0.00 0.00 0.00 0.00 0.00 0.00 0.00 0.00
0.03 0.04 0.05 0.07 0.09 0.12 0.11 0.08 0.04 0.03 0.02 0.01 0.00 0.00 0.00 0.00 0.01 0.00 0.00 0.00 0.00 0.00 0.00 0.00 0.00 0.00 0.00 0.00 0.00 0.00 0.00 0.00 0.00 0.00 0.00 0.00 0.00 0.00 0.00 0.00 0.00 0.00 0.00 0.00 0.00 0.00 0.00
0.02 0.01 0.01 0.02 0.02 0.03 0.04 0.05 0.04 0.03 0.02 0.01 0.00 0.00 0.00 0.00 0.00 0.00 0.00 0.00 0.00 0.00 0.00 0.00 0.00 0.00 0.00 0.00 0.00 0.00 0.00 0.00 0.00 0.00 0.00 0.00 0.00 0.00 0.00 0.00 0.00 0.00 0.00 0.00 0.00 0.00 0.00
0.03 0.02 0.01 0.00 0.00 0.00 0.00 0.01 0.00 0.00 0.00 0.00 0.00 0.00 0.00 0.00 0.00 0.00 0.00 0.00 0.00 0.00 0.00 0.00 0.00 0.00 0.00 0.00 0.00 0.00 0.00 0.00 0.00 0.00 0.00 0.00 0.00 0.00 0.00 0.00 0.00 0.00 0.00 0.00 0.00 0.00 0.00
0.03 0.02 0.02 0.02 0.01 0.00 0.00 0.00 0.00 0.00 0.00 0.00 0.00 0.00 0.00 0.00 0.00 0.00 0.00 0.00 0.00 0.00 0.00 0.00 0.00 0.00 0.00 0.00 0.00 0.00 0.00 0.00 0.00 0.00 0.00 0.00 0.00 0.00 0.00 0.00 0.00 0.00 0.00 0.00 0.00 0.00 0.00
0.03 0.04 0.03 0.01 0.02 0.01 0.00 0.00 0.00 0.00 0.00 0.00 0.00 0.00 0.00 0.00 0.00 0.00 0.00 0.00 0.00 0.00 0.00 0.00 0.00 0.00 0.00 0.00 0.00 0.00 0.00 0.00 0.00 0.00 0.00 0.00 0.00 0.00 0.00 0.00 0.00 0.00 0.00 0.00 0.00 0.00 0.00
0.04 0.03 0.02 0.03 0.02 0.01 0.00 0.00 0.00 0.00 0.00 0.01 0.01 0.01 0.00 0.00 0.00 0.00 0.00 0.00 0.00 0.00 0.00 0.00 0.00 0.00 0.00 0.00 0.00 0.00 0.00 0.00 0.00 0.00 0.00 0.00 0.00 0.00 0.00 0.00 0.00 0.00 0.00 0.00 0.00 0.00 0.00
0.05 0.05 0.04 0.02 0.02 0.02 0.01 0.01 0.00 0.00 0.00 0.02 0.02 0.01 0.00 0.00 0.00 0.00 0.00 0.00 0.00 0.00 0.00 0.00 0.00 0.00 0.00 0.00 0.00 0.00 0.00 0.00 0.00 0.00 0.00 0.00 0.00 0.00 0.00 0.00 0.00 0.00 0.00 0.00 0.00 0.00 0.00
0.05 0.05 0.06 0.04 0.03 0.03 0.02 0.02 0.02 0.02 0.01 0.00 0.02 0.02 0.00 0.00 0.00 0.00 0.00 0.00 0.00 0.00 0.00 0.00 0.00 0.00 0.00 0.00 0.00 0.00 0.00 0.00 0.00 0.00 0.00 0.00 0.00 0.00 0.00 0.00 0.00 0.00 0.00 0.00 0.01 0.00 0.00
0.06 0.06 0.07 0.07 0.06 0.05 0.05 0.04 0.04 0.03 0.02 0.02 0.03 0.04 0.02 0.00 0.00 0.00 0.00 0.00 0.00 0.00 0.00 0.00 0.00 0.00 0.00 0.00 0.00 0.00 0.00 0.00 0.00 0.00 0.00 0.00 0.00 0.00 0.00 0.00 0.00 0.00 0.00 0.00 0.01 0.01 0.04
0.08 0.08 0.08 0.08 0.09 0.09 0.06 0.06 0.07 0.07 0.06 0.05 0.05 0.07 0.02 0.00 0.00 0.01 0.01 0.00 0.00 0.00 0.00 0.00 0.00 0.00 0.00 0.00 0.00 0.00 0.00 0.00 0.00 0.00 0.00 0.00 0.00 0.00 0.00 0.00 0.00 0.00 0.00 0.01 0.06 0.11 0.08
0.10 0.09 0.10 0.09 0.08 0.08 0.10 0.08 0.08 0.09 0.12 0.10 0.09 0.08 0.02 0.01 0.02 0.04 0.01 0.00 0.00 0.00 0.00 0.00 0.00 0.00 0.00 0.00 0.00 0.00 0.00 0.00 0.00 0.00 0.00 0.00 0.00 0.00 0.00 0.00 0.00 0.00 0.01 0.01 0.09 0.09 0.15
0.12 0.13 0.11 0.11 0.08 0.07 0.09 0.08 0.08 0.13 0.27 0.22 0.16 0.10 0.07 0.05 0.03 0.02 0.00 0.00 0.00 0.00 0.00 0.00 0.00 0.00 0.00 0.00 0.00 0.00 0.00 0.00 0.00 0.00 0.00 0.00 0.00 0.00 0.00 0.00 0.00 0.00 0.00 0.03 0.16 0.14 0.18
0.08 0.10 0.12 0.14 0.12 0.09 0.11 0.09 0.10 0.15 0.38 0.26 0.22 0.11 0.13 0.15 0.03 0.01 0.00 0.00 0.00 0.00 0.00 0.00 0.00 0.00 0.00 0.00 0.00 0.00 0.00 0.00 0.00 0.00 0.00 0.00 0.00 0.00 0.00 0.00 0.01 0.00 0.01 0.05 0.08 0.14 0.16
0.16 0.12 0.10 0.13 0.20 0.19 0.14 0.21 0.20 0.20 0.30 0.40 0.53 0.39 0.35 0.33 0.04 0.00 0.00 0.00 0.00 0.00 0.00 0.00 0.00 0.00 0.00 0.00 0.00 0.00 0.00 0.00 0.00 0.00 0.00 0.01 0.00 0.00 0.00 0.01 0.03 0.03 0.01 0.05 0.17 0.27 0.20
0.15 0.21 0.21 0.17 0.18 0.26 0.32 0.26 0.30 0.43 0.45 0.69 0.70 0.42 0.16 0.29 0.08 0.02 0.00 0.00 0.00 0.00 0.00 0.00 0.00 0.00 0.00 0.00 0.00 0.00 0.00 0.00 0.00 0.00 0.00 0.03 0.01 0.00 0.00 0.00 0.01 0.01 0.00 0.00 0.02 0.03 0.09
0.20 0.16 0.26 0.34 0.28 0.26 0.39 0.47 0.48 0.36 0.73 1.50 1.00 0.37 0.15 0.06 0.01 0.03 0.02 0.01 0.00 0.00 0.00 0.00 0.00 0.00 0.00 0.00 0.00 0.00 0.00 0.01 0.01 0.01 0.02 0.04 0.03 0.02 0.01 0.00 0.01 0.01 0.01 0.00 0.00 0.00 0.00
0.35 0.19 0.13 0.29 0.47 0.37 0.38 0.50 0.53 0.69 1.04 1.77 0.93 0.35 0.30 0.17 0.07 0.10 0.06 0.00 0.00 0.02 0.02 0.00 0.00 0.00 0.01 0.00 0.00 0.00 0.00 0.00 0.00 0.00 0.01 0.02 0.03 0.04 0.03 0.01 0.03 0.02 0.00 0.00 0.00 0.00 0.00
0.40 0.38 0.21 0.13 0.33 0.52 0.48 0.45 0.51 0.55 1.03 1.01 0.56 0.44 0.60 0.37 0.12 0.08 0.02 0.00 0.00 0.01 0.02 0.01 0.02 0.03 0.01 0.00 0.02 0.01 0.01 0.02 0.02 0.01 0.01 0.02 0.03 0.09 0.09 0.10 0.11 0.01 0.00 0.00 0.00 0.00 0.01
0.39 0.41 0.42 0.24 0.15 0.42 0.52 0.51 0.47 0.51 0.69 0.67 0.51 0.81 0.89 0.51 0.12 0.04 0.01 0.01 0.02 0.02 0.03 0.02 0.00 0.00 0.03 0.15 0.20 0.09 0.01 0.02 0.00 0.00 0.00 0.01 0.05 0.13 0.15 0.10 0.03 0.00 0.00 0.00 0.02 0.03 0.01
0.28 0.45 0.43 0.42 0.24 0.21 0.46 0.49 0.46 0.44 0.57 0.68 0.52 0.58 0.84 0.62 0.20 0.03 0.06 0.06 0.09 0.05 0.03 0.00 0.00 0.01 0.13 0.35 0.27 0.18 0.03 0.03 0.02 0.02 0.02 0.02 0.07 0.17 0.17 0.21 0.06 0.02 0.05 0.00 0.01 0.03 0.01
0.24 0.31 0.45 0.40 0.32 0.22 0.35 0.40 0.47 0.41 0.44 0.67 0.59 0.51 0.77 0.62 0.10 0.03 0.09 0.08 0.10 0.10 0.09 0.02 0.03 0.09 0.20 0.37 0.40 0.11 0.04 0.02 0.03 0.05 0.06 0.04 0.11 0.21 0.14 0.26 0.06 0.00 0.02 0.02 0.04 0.07 0.00
0.20 0.24 0.35 0.41 0.31 0.25 0.29 0.39 0.39 0.39 0.41 0.57 0.54 0.57 0.75 0.50 0.10 0.04 0.04 0.07 0.09 0.16 0.17 0.14 0.21 0.19 0.30 0.38 0.26 0.14 0.07 0.05 0.05 0.04 0.11 0.16 0.26 0.23 0.20 0.33 0.10 0.00 0.04 0.07 0.06 0.01 0.00
0.22 0.24 0.27 0.38 0.32 0.25 0.25 0.38 0.38 0.31 0.39 0.49 0.58 0.52 0.79 0.74 0.25 0.04 0.01 0.02 0.03 0.04 0.16 0.23 0.21 0.18 0.23 0.21 0.21 0.22 0.20 0.15 0.12 0.13 0.12 0.18 0.23 0.41 0.35 0.19 0.10 0.03 0.06 0.08 0.04 0.01 0.01

GFSGBSN_prec_precacc24_171.txt.gz
Total_Precipitation_Accumulation
0.07 0.05 0.04 0.02 0.01 0.00 0.00 0.00 0.01 0.01 0.00 0.00 0.00 0.00 0.00 0.00 0.00 0.00 0.00 0.00 0.00 0.00 0.00 0.00 0.00 0.00 0.00 0.00 0.00 0.00 0.00 0.00 0.00 0.00 0.00 0.00 0.00 0.00 0.00 0.00 0.00 0.00 0.00 0.00 0.00 0.00 0.00
0.42 0.35 0.32 0.31 0.28 0.25 0.23 0.19 0.15 0.08 0.03 0.01 0.00 0.00 0.00 0.00 0.00 0.00 0.00 0.00 0.00 0.00 0.00 0.00 0.00 0.00 0.00 0.00 0.00 0.00 0.00 0.00 0.00 0.00 0.00 0.00 0.00 0.00 0.00 0.00 0.00 0.00 0.00 0.00 0.00 0.00 0.00
0.28 0.33 0.32 0.31 0.29 0.23 0.18 0.14 0.11 0.09 0.04 0.01 0.00 0.00 0.00 0.00 0.00 0.00 0.00 0.00 0.00 0.00 0.00 0.00 0.00 0.00 0.00 0.00 0.00 0.00 0.00 0.00 0.00 0.00 0.00 0.00 0.00 0.00 0.00 0.00 0.00 0.00 0.00 0.00 0.00 0.00 0.00
0.20 0.17 0.15 0.14 0.14 0.13 0.13 0.13 0.11 0.08 0.03 0.02 0.00 0.00 0.00 0.00 0.00 0.00 0.00 0.00 0.00 0.00 0.00 0.00 0.00 0.00 0.00 0.00 0.00 0.00 0.00 0.00 0.00 0.00 0.00 0.00 0.00 0.00 0.00 0.00 0.00 0.00 0.00 0.00 0.00 0.00 0.00
0.11 0.11 0.12 0.10 0.11 0.10 0.10 0.09 0.06 0.03 0.02 0.00 0.00 0.00 0.00 0.00 0.00 0.00 0.00 0.00 0.00 0.00 0.00 0.00 0.00 0.00 0.00 0.00 0.00 0.00 0.00 0.00 0.00 0.00 0.00 0.00 0.00 0.00 0.00 0.00 0.00 0.00 0.00 0.00 0.00 0.00 0.00
0.05 0.07 0.07 0.08 0.09 0.09 0.07 0.03 0.01 0.00 0.00 0.00 0.00 0.00 0.00 0.00 0.00 0.00 0.00 0.00 0.00 0.00 0.00 0.00 0.00 0.00 0.00 0.00 0.00 0.00 0.00 0.00 0.00 0.00 0.00 0.00 0.00 0.00 0.00 0.00 0.00 0.00 0.00 0.00 0.00 0.00 0.00
0.03 0.04 0.05 0.06 0.09 0.12 0.11 0.08 0.04 0.03 0.02 0.01 0.00 0.00 0.00 0.00 0.00 0.00 0.00 0.00 0.00 0.00 0.00 0.00 0.00 0.00 0.00 0.00 0.00 0.00 0.00 0.00 0.00 0.00 0.00 0.00 0.00 0.00 0.00 0.00 0.00 0.00 0.00 0.00 0.00 0.00 0.00
0.02 0.01 0.01 0.01 0.02 0.03 0.04 0.05 0.04 0.03 0.02 0.01 0.00 0.00 0.00 0.00 0.00 0.00 0.00 0.00 0.00 0.00 0.00 0.00 0.00 0.00 0.00 0.00 0.00 0.00 0.00 0.00 0.00 0.00 0.00 0.00 0.00 0.00 0.00 0.00 0.00 0.00 0.00 0.00 0.00 0.00 0.00
0.02 0.02 0.01 0.00 0.00 0.00 0.00 0.01 0.00 0.00 0.00 0.00 0.00 0.00 0.00 0.00 0.00 0.00 0.00 0.00 0.00 0.00 0.00 0.00 0.00 0.00 0.00 0.00 0.00 0.00 0.00 0.00 0.00 0.00 0.00 0.00 0.00 0.00 0.00 0.00 0.00 0.00 0.00 0.00 0.00 0.00 0.00
0.02 0.02 0.02 0.02 0.01 0.01 0.00 0.00 0.00 0.00 0.00 0.00 0.00 0.00 0.00 0.00 0.00 0.00 0.00 0.00 0.00 0.00 0.00 0.00 0.00 0.00 0.00 0.00 0.00 0.00 0.00 0.00 0.00 0.00 0.00 0.00 0.00 0.00 0.00 0.00 0.00 0.00 0.00 0.00 0.00 0.00 0.00
0.03 0.03 0.03 0.01 0.02 0.01 0.00 0.00 0.00 0.00 0.00 0.00 0.00 0.00 0.00 0.00 0.00 0.00 0.00 0.00 0.00 0.00 0.00 0.00 0.00 0.00 0.00 0.00 0.00 0.00 0.00 0.00 0.00 0.00 0.00 0.00 0.00 0.00 0.00 0.00 0.00 0.00 0.00 0.00 0.00 0.00 0.00
0.03 0.02 0.02 0.03 0.02 0.01 0.00 0.00 0.00 0.00 0.00 0.00 0.01 0.00 0.00 0.00 0.00 0.00 0.00 0.00 0.00 0.00 0.00 0.00 0.00 0.00 0.00 0.00 0.00 0.00 0.00 0.00 0.00 0.00 0.00 0.00 0.00 0.00 0.00 0.00 0.00 0.00 0.00 0.00 0.00 0.00 0.00
0.04 0.04 0.03 0.02 0.02 0.02 0.01 0.01 0.00 0.00 0.00 0.01 0.01 0.01 0.00 0.00 0.00 0.00 0.00 0.00 0.00 0.00 0.00 0.00 0.00 0.00 0.00 0.00 0.00 0.00 0.00 0.00 0.00 0.00 0.00 0.00 0.00 0.00 0.00 0.00 0.00 0.00 0.00 0.00 0.00 0.00 0.00
0.03 0.04 0.05 0.04 0.03 0.03 0.02 0.02 0.02 0.03 0.02 0.01 0.02 0.01 0.00 0.00 0.00 0.00 0.00 0.00 0.00 0.00 0.00 0.00 0.00 0.00 0.00 0.00 0.00 0.00 0.00 0.00 0.00 0.00 0.00 0.00 0.00 0.00 0.00 0.00 0.00 0.00 0.00 0.00 0.01 0.00 0.00
0.05 0.05 0.05 0.07 0.06 0.05 0.05 0.04 0.04 0.03 0.02 0.03 0.05 0.03 0.02 0.00 0.00 0.00 0.00 0.00 0.00 0.00 0.00 0.00 0.00 0.00 0.00 0.00 0.00 0.00 0.00 0.00 0.00 0.00 0.00 0.00 0.00 0.00 0.00 0.00 0.00 0.00 0.00 0.00 0.01 0.00 0.02
0.06 0.07 0.07 0.07 0.08 0.08 0.06 0.06 0.07 0.07 0.06 0.06 0.06 0.06 0.02 0.00 0.00 0.01 0.01 0.00 0.00 0.00 0.00 0.00 0.00 0.00 0.00 0.00 0.00 0.00 0.00 0.00 0.00 0.00 0.00 0.00 0.00 0.00 0.00 0.00 0.00 0.00 0.00 0.01 0.05 0.08 0.06
0.08 0.08 0.08 0.08 0.08 0.07 0.07 0.07 0.08 0.09 0.12 0.11 0.09 0.09 0.02 0.01 0.02 0.04 0.01 0.00 0.00 0.00 0.00 0.00 0.00 0.00 0.00 0.00 0.00 0.00 0.00 0.00 0.00 0.00 0.00 0.00 0.00 0.00 0.00 0.00 0.00 0.00 0.01 0.01 0.08 0.08 0.12
0.10 0.11 0.10 0.10 0.07 0.06 0.07 0.06 0.08 0.13 0.27 0.24 0.17 0.12 0.08 0.05 0.04 0.02 0.00 0.00 0.00 0.00 0.00 0.00 0.00 0.00 0.00 0.00 0.00 0.00 0.00 0.00 0.00 0.00 0.00 0.00 0.00 0.00 0.00 0.00 0.00 0.00 0.00 0.02 0.13 0.12 0.15
0.07 0.09 0.10 0.12 0.11 0.08 0.09 0.07 0.10 0.15 0.39 0.28 0.24 0.14 0.16 0.19 0.09 0.02 0.00 0.00 0.00 0.00 0.00 0.00 0.00 0.00 0.00 0.00 0.00 0.00 0.00 0.00 0.00 0.00 0.00 0.00 0.00 0.00 0.00 0.00 0.01 0.00 0.00 0.02 0.06 0.11 0.10
0.14 0.11 0.10 0.12 0.18 0.16 0.12 0.19 0.19 0.19 0.30 0.43 0.58 0.48 0.41 0.43 0.08 0.00 0.00 0.00 0.00 0.00 0.00 0.00 0.00 0.00 0.00 0.00 0.00 0.00 0.00 0.00 0.00 0.00 0.00 0.00 0.00 0.00 0.00 0.01 0.03 0.03 0.01 0.02 0.12 0.20 0.16
0.12 0.19 0.20 0.16 0.16 0.24 0.30 0.25 0.29 0.42 0.44 0.71 0.78 0.49 0.23 0.43 0.13 0.02 0.00 0.00 0.00 0.00 0.00 0.00 0.00 0.00 0.00 0.00 0.00 0.00 0.00 0.00 0.00 0.00 0.00 0.01 0.00 0.00 0.00 0.00 0.01 0.01 0.00 0.00 0.01 0.02 0.07
0.16 0.13 0.24 0.33 0.27 0.25 0.37 0.47 0.47 0.36 0.70 1.50 1.07 0.42 0.21 0.13 0.06 0.09 0.07 0.02 0.00 0.00 0.00 0.00 0.00 0.00 0.00 0.00 0.00 0.00 0.00 0.01 0.01 0.01 0.01 0.03 0.02 0.02 0.01 0.00 0.01 0.01 0.01 0.00 0.00 0.00 0.00
0.29 0.16 0.11 0.27 0.45 0.37 0.37 0.49 0.54 0.68 1.04 1.76 0.94 0.39 0.42 0.27 0.13 0.23 0.21 0.03 0.00 0.03 0.05 0.00 0.00 0.00 0.00 0.00 0.00 0.00 0.00 0.00 0.00 0.00 0.00 0.01 0.01 0.02 0.02 0.01 0.02 0.01 0.00 0.00 0.00 0.00 0.00
0.33 0.34 0.18 0.11 0.32 0.51 0.48 0.45 0.50 0.54 1.05 1.01 0.56 0.45 0.65 0.42 0.15 0.11 0.06 0.06 0.05 0.04 0.07 0.02 0.04 0.04 0.00 0.00 0.01 0.00 0.00 0.00 0.01 0.00 0.00 0.01 0.01 0.04 0.05 0.08 0.09 0.00 0.00 0.00 0.00 0.00 0.01
0.34 0.37 0.39 0.21 0.14 0.41 0.52 0.51 0.46 0.51 0.69 0.69 0.52 0.83 0.90 0.48 0.11 0.04 0.02 0.02 0.04 0.06 0.13 0.11 0.04 0.04 0.02 0.08 0.10 0.05 0.01 0.01 0.00 0.00 0.00 0.01 0.04 0.11 0.11 0.07 0.02 0.00 0.00 0.00 0.02 0.03 0.01
0.22 0.42 0.40 0.39 0.22 0.20 0.46 0.48 0.45 0.43 0.56 0.71 0.53 0.62 0.85 0.63 0.18 0.02 0.07 0.08 0.15 0.11 0.06 0.03 0.01 0.04 0.06 0.23 0.24 0.20 0.06 0.02 0.02 0.02 0.02 0.02 0.07 0.16 0.12 0.17 0.05 0.02 0.05 0.00 0.01 0.03 0.01
0.19 0.29 0.43 0.39 0.32 0.23 0.35 0.40 0.46 0.39 0.40 0.66 0.58 0.52 0.78 0.61 0.09 0.03 0.10 0.11 0.12 0.11 0.11 0.03 0.04 0.08 0.12 0.25 0.35 0.19 0.13 0.06 0.05 0.06 0.06 0.04 0.09 0.16 0.10 0.21 0.05 0.00 0.02 0.02 0.04 0.07 0.00
0.19 0.24 0.35 0.42 0.32 0.26 0.28 0.37 0.38 0.38 0.37 0.55 0.51 0.56 0.75 0.45 0.09 0.04 0.05 0.09 0.14 0.17 0.16 0.15 0.19 0.16 0.22 0.28 0.22 0.14 0.10 0.08 0.06 0.04 0.11 0.16 0.23 0.19 0.18 0.30 0.10 0.00 0.04 0.07 0.06 0.01 0.00
0.22 0.24 0.27 0.39 0.32 0.26 0.24 0.30 0.34 0.30 0.37 0.48 0.57 0.50 0.78 0.73 0.24 0.03 0.00 0.01 0.05 0.10 0.26 0.30 0.20 0.17 0.22 0.19 0.20 0.22 0.20 0.15 0.12 0.13 0.12 0.17 0.23 0.41 0.35 0.19 0.10 0.03 0.06 0.08 0.04 0.01 0.01

GFSGBSN_prec_precacc24_174.txt.gz
Total_Precipitation_Accumulation
0.07 0.05 0.04 0.02 0.01 0.01 0.01 0.01 0.01 0.01 0.01 0.00 0.00 0.00 0.00 0.00 0.00 0.00 0.00 0.00 0.00 0.00 0.00 0.00 0.00 0.00 0.00 0.00 0.00 0.00 0.00 0.00 0.00 0.00 0.00 0.00 0.00 0.00 0.00 0.00 0.00 0.00 0.00 0.00 0.00 0.00 0.00
0.38 0.34 0.33 0.31 0.29 0.25 0.23 0.19 0.15 0.08 0.03 0.01 0.01 0.00 0.00 0.00 0.00 0.00 0.00 0.00 0.00 0.00 0.00 0.00 0.00 0.00 0.00 0.00 0.00 0.00 0.00 0.00 0.00 0.00 0.00 0.00 0.00 0.00 0.00 0.00 0.00 0.00 0.00 0.00 0.00 0.00 0.00
0.27 0.33 0.32 0.31 0.29 0.23 0.18 0.14 0.11 0.09 0.05 0.02 0.01 0.00 0.00 0.00 0.00 0.00 0.00 0.00 0.00 0.00 0.00 0.00 0.00 0.00 0.00 0.00 0.00 0.00 0.00 0.00 0.00 0.00 0.00 0.00 0.00 0.00 0.00 0.00 0.00 0.00 0.00 0.00 0.00 0.00 0.00
0.16 0.15 0.15 0.14 0.14 0.13 0.14 0.13 0.11 0.08 0.04 0.02 0.01 0.00 0.00 0.00 0.00 0.00 0.00 0.00 0.00 0.00 0.00 0.00 0.00 0.00 0.00 0.00 0.00 0.00 0.00 0.00 0.00 0.00 0.00 0.00 0.00 0.00 0.00 0.00 0.00 0.00 0.00 0.00 0.00 0.00 0.00
0.08 0.10 0.11 0.10 0.11 0.10 0.10 0.10 0.06 0.03 0.02 0.01 0.00 0.00 0.00 0.00 0.00 0.00 0.00 0.00 0.00 0.00 0.00 0.00 0.00 0.00 0.00 0.00 0.00 0.00 0.00 0.00 0.00 0.00 0.00 0.00 0.00 0.00 0.00 0.00 0.00 0.00 0.00 0.00 0.00 0.00 0.00
0.05 0.07 0.07 0.08 0.09 0.09 0.07 0.03 0.01 0.00 0.00 0.00 0.00 0.00 0.00 0.00 0.00 0.00 0.00 0.00 0.00 0.00 0.00 0.00 0.00 0.00 0.00 0.00 0.00 0.00 0.00 0.00 0.00 0.00 0.00 0.00 0.00 0.00 0.00 0.00 0.00 0.00 0.00 0.00 0.00 0.00 0.00
0.03 0.03 0.04 0.06 0.09 0.12 0.11 0.08 0.04 0.03 0.02 0.01 0.00 0.00 0.00 0.00 0.00 0.00 0.00 0.00 0.00 0.00 0.00 0.00 0.00 0.00 0.00 0.00 0.00 0.00 0.00 0.00 0.00 0.00 0.00 0.00 0.00 0.00 0.00 0.00 0.00 0.00 0.00 0.00 0.00 0.00 0.00
0.01 0.01 0.01 0.01 0.02 0.03 0.04 0.05 0.04 0.03 0.02 0.01 0.00 0.00 0.00 0.00 0.00 0.00 0.00 0.00 0.00 0.00 0.00 0.00 0.00 0.00 0.00 0.00 0.00 0.00 0.00 0.00 0.00 0.00 0.00 0.00 0.00 0.00 0.00 0.00 0.00 0.00 0.00 0.00 0.00 0.00 0.00
0.02 0.02 0.01 0.00 0.00 0.00 0.00 0.00 0.00 0.00 0.00 0.00 0.00 0.00 0.00 0.00 0.00 0.00 0.00 0.00 0.00 0.00 0.00 0.00 0.00 0.00 0.00 0.00 0.00 0.00 0.00 0.00 0.00 0.00 0.00 0.00 0.00 0.00 0.00 0.00 0.00 0.00 0.00 0.00 0.00 0.00 0.00
0.02 0.02 0.02 0.02 0.01 0.00 0.00 0.00 0.00 0.00 0.00 0.00 0.00 0.00 0.00 0.00 0.00 0.00 0.00 0.00 0.00 0.00 0.00 0.00 0.00 0.00 0.00 0.00 0.00 0.00 0.00 0.00 0.00 0.00 0.00 0.00 0.00 0.00 0.00 0.00 0.00 0.00 0.00 0.00 0.00 0.00 0.00
0.03 0.03 0.02 0.01 0.02 0.01 0.00 0.00 0.00 0.00 0.00 0.00 0.00 0.00 0.00 0.00 0.00 0.00 0.00 0.00 0.00 0.00 0.00 0.00 0.00 0.00 0.00 0.00 0.00 0.00 0.00 0.00 0.00 0.00 0.00 0.00 0.00 0.00 0.00 0.00 0.00 0.00 0.00 0.00 0.00 0.00 0.00
0.03 0.02 0.02 0.02 0.02 0.01 0.00 0.00 0.00 0.00 0.00 0.00 0.00 0.00 0.00 0.00 0.00 0.00 0.00 0.00 0.00 0.00 0.00 0.00 0.00 0.00 0.00 0.00 0.00 0.00 0.00 0.00 0.00 0.00 0.00 0.00 0.00 0.00 0.00 0.00 0.00 0.00 0.00 0.00 0.00 0.00 0.00
0.03 0.04 0.02 0.01 0.02 0.02 0.01 0.01 0.00 0.00 0.00 0.00 0.00 0.00 0.00 0.00 0.00 0.00 0.00 0.00 0.00 0.00 0.00 0.00 0.00 0.00 0.00 0.00 0.00 0.00 0.00 0.00 0.00 0.00 0.00 0.00 0.00 0.00 0.00 0.00 0.00 0.00 0.00 0.00 0.00 0.00 0.00
0.03 0.03 0.04 0.03 0.03 0.03 0.02 0.02 0.02 0.03 0.02 0.01 0.02 0.00 0.00 0.00 0.00 0.00 0.00 0.00 0.00 0.00 0.00 0.00 0.00 0.00 0.00 0.00 0.00 0.00 0.00 0.00 0.00 0.00 0.00 0.00 0.00 0.00 0.00 0.00 0.00 0.00 0.00 0.00 0.00 0.00 0.00
0.04 0.05 0.04 0.05 0.06 0.05 0.05 0.04 0.04 0.03 0.02 0.03 0.06 0.03 0.01 0.00 0.00 0.00 0.00 0.00 0.00 0.00 0.00 0.00 0.00 0.00 0.00 0.00 0.00 0.00 0.00 0.00 0.00 0.00 0.00 0.00 0.00 0.00 0.00 0.00 0.00 0.00 0.00 0.00 0.00 0.00 0.00
0.04 0.06 0.07 0.06 0.07 0.07 0.06 0.06 0.07 0.07 0.06 0.06 0.05 0.05 0.02 0.00 0.00 0.01 0.01 0.00 0.00 0.00 0.00 0.00 0.00 0.00 0.00 0.00 0.00 0.00 0.00 0.00 0.00 0.00 0.00 0.00 0.00 0.00 0.00 0.00 0.00 0.00 0.00 0.00 0.02 0.04 0.02
0.04 0.05 0.07 0.07 0.07 0.07 0.07 0.06 0.08 0.09 0.12 0.10 0.09 0.09 0.02 0.01 0.02 0.04 0.01 0.00 0.00 0.00 0.00 0.00 0.00 0.00 0.00 0.00 0.00 0.00 0.00 0.00 0.00 0.00 0.00 0.00 0.00 0.00 0.00 0.00 0.00 0.00 0.00 0.01 0.03 0.04 0.07
0.04 0.06 0.07 0.08 0.06 0.06 0.07 0.06 0.07 0.13 0.27 0.23 0.17 0.13 0.08 0.05 0.04 0.02 0.01 0.00 0.00 0.00 0.00 0.00 0.00 0.00 0.00 0.00 0.00 0.00 0.00 0.00 0.00 0.00 0.00 0.00 0.00 0.00 0.00 0.00 0.00 0.00 0.00 0.01 0.09 0.06 0.09
0.03 0.05 0.07 0.09 0.08 0.08 0.09 0.07 0.08 0.15 0.39 0.29 0.26 0.14 0.16 0.20 0.13 0.03 0.00 0.00 0.00 0.00 0.00 0.00 0.00 0.00 0.00 0.00 0.00 0.00 0.00 0.00 0.00 0.00 0.00 0.00 0.00 0.00 0.00 0.00 0.00 0.00 0.00 0.01 0.03 0.07 0.08
0.05 0.06 0.08 0.10 0.14 0.14 0.11 0.20 0.19 0.19 0.30 0.45 0.61 0.49 0.42 0.47 0.12 0.02 0.02 0.01 0.00 0.00 0.00 0.00 0.00 0.00 0.00 0.00 0.00 0.00 0.00 0.00 0.00 0.00 0.00 0.00 0.00 0.00 0.00 0.00 0.02 0.02 0.00 0.01 0.09 0.15 0.13
0.06 0.09 0.10 0.14 0.15 0.22 0.28 0.24 0.29 0.42 0.43 0.72 0.82 0.55 0.25 0.47 0.15 0.03 0.01 0.01 0.00 0.00 0.00 0.00 0.00 0.00 0.00 0.00 0.00 0.00 0.00 0.00 0.00 0.00 0.00 0.00 0.00 0.00 0.00 0.00 0.00 0.00 0.00 0.00 0.01 0.02 0.05
0.05 0.09 0.11 0.22 0.25 0.25 0.37 0.47 0.47 0.36 0.67 1.48 1.10 0.45 0.27 0.16 0.09 0.16 0.15 0.07 0.00 0.00 0.02 0.03 0.01 0.00 0.03 0.01 0.00 0.00 0.00 0.00 0.00 0.00 0.00 0.00 0.00 0.01 0.01 0.00 0.00 0.00 0.01 0.00 0.00 0.00 0.00
0.09 0.07 0.08 0.19 0.42 0.35 0.35 0.48 0.54 0.69 1.03 1.74 0.92 0.41 0.49 0.33 0.17 0.28 0.30 0.14 0.07 0.08 0.15 0.02 0.01 0.04 0.04 0.01 0.01 0.00 0.00 0.00 0.00 0.00 0.00 0.01 0.01 0.02 0.01 0.00 0.02 0.01 0.00 0.00 0.00 0.00 0.00
0.09 0.19 0.15 0.09 0.30 0.49 0.46 0.44 0.50 0.54 1.06 1.02 0.56 0.45 0.70 0.44 0.16 0.14 0.09 0.10 0.10 0.09 0.16 0.05 0.07 0.06 0.02 0.01 0.02 0.00 0.00 0.00 0.00 0.00 0.00 0.01 0.03 0.07 0.07 0.04 0.06 0.00 0.00 0.00 0.00 0.00 0.01
0.06 0.10 0.29 0.19 0.12 0.39 0.51 0.51 0.47 0.50 0.69 0.71 0.52 0.85 0.92 0.48 0.11 0.03 0.02 0.03 0.05 0.07 0.18 0.16 0.07 0.07 0.11 0.16 0.17 0.05 0.01 0.01 0.00 0.00 0.00 0.00 0.04 0.12 0.10 0.05 0.02 0.00 0.00 0.00 0.02 0.03 0.01
0.05 0.18 0.23 0.36 0.20 0.18 0.45 0.48 0.45 0.42 0.55 0.72 0.54 0.64 0.88 0.65 0.17 0.02 0.07 0.08 0.14 0.11 0.07 0.04 0.02 0.07 0.18 0.31 0.24 0.17 0.06 0.03 0.02 0.02 0.02 0.02 0.06 0.23 0.19 0.19 0.05 0.02 0.05 0.00 0.01 0.03 0.01
0.08 0.14 0.29 0.34 0.31 0.22 0.35 0.40 0.46 0.38 0.37 0.66 0.59 0.56 0.79 0.61 0.09 0.03 0.09 0.09 0.12 0.13 0.12 0.04 0.05 0.09 0.14 0.30 0.31 0.17 0.13 0.09 0.10 0.07 0.08 0.07 0.10 0.17 0.10 0.17 0.03 0.00 0.02 0.02 0.04 0.07 0.00
0.12 0.16 0.30 0.40 0.32 0.27 0.29 0.38 0.38 0.36 0.34 0.53 0.51 0.56 0.76 0.46 0.09 0.04 0.05 0.09 0.15 0.22 0.25 0.22 0.24 0.19 0.21 0.28 0.20 0.11 0.10 0.09 0.08 0.04 0.10 0.17 0.23 0.18 0.15 0.25 0.08 0.00 0.04 0.07 0.07 0.02 0.00
0.18 0.21 0.27 0.39 0.33 0.26 0.25 0.31 0.34 0.29 0.33 0.48 0.58 0.49 0.74 0.68 0.24 0.04 0.00 0.01 0.05 0.10 0.25 0.37 0.36 0.31 0.27 0.18 0.19 0.23 0.21 0.17 0.13 0.13 0.11 0.16 0.22 0.39 0.34 0.18 0.11 0.04 0.06 0.08 0.04 0.01 0.01

GFSGBSN_prec_precacc24_177.txt.gz
Total_Precipitation_Accumulation
0.06 0.05 0.03 0.02 0.01 0.01 0.01 0.01 0.01 0.01 0.01 0.00 0.00 0.00 0.00 0.00 0.00 0.00 0.00 0.00 0.00 0.00 0.00 0.00 0.00 0.00 0.00 0.00 0.00 0.00 0.00 0.00 0.00 0.00 0.00 0.00 0.00 0.00 0.00 0.00 0.00 0.00 0.00 0.00 0.00 0.00 0.00
0.19 0.20 0.22 0.26 0.28 0.25 0.23 0.19 0.15 0.08 0.03 0.01 0.01 0.00 0.00 0.00 0.00 0.00 0.00 0.00 0.00 0.00 0.00 0.00 0.00 0.00 0.00 0.00 0.00 0.00 0.00 0.00 0.00 0.00 0.00 0.00 0.00 0.00 0.00 0.00 0.00 0.00 0.00 0.00 0.00 0.00 0.00
0.13 0.20 0.25 0.27 0.28 0.23 0.18 0.14 0.11 0.09 0.05 0.02 0.01 0.00 0.00 0.00 0.00 0.00 0.00 0.00 0.00 0.00 0.00 0.00 0.00 0.00 0.00 0.00 0.00 0.00 0.00 0.00 0.00 0.00 0.00 0.00 0.00 0.00 0.00 0.00 0.00 0.00 0.00 0.00 0.00 0.00 0.00
0.09 0.10 0.11 0.13 0.13 0.13 0.14 0.13 0.11 0.08 0.04 0.02 0.01 0.00 0.00 0.00 0.00 0.00 0.00 0.00 0.00 0.00 0.00 0.00 0.00 0.00 0.00 0.00 0.00 0.00 0.00 0.00 0.00 0.00 0.00 0.00 0.00 0.00 0.00 0.00 0.00 0.00 0.00 0.00 0.00 0.00 0.00
0.04 0.06 0.08 0.09 0.10 0.10 0.10 0.10 0.06 0.03 0.02 0.01 0.00 0.00 0.00 0.00 0.00 0.00 0.00 0.00 0.00 0.00 0.00 0.00 0.00 0.00 0.00 0.00 0.00 0.00 0.00 0.00 0.00 0.00 0.00 0.00 0.00 0.00 0.00 0.00 0.00 0.00 0.00 0.00 0.00 0.00 0.00
0.04 0.05 0.06 0.07 0.09 0.09 0.07 0.03 0.01 0.00 0.00 0.00 0.00 0.00 0.00 0.00 0.00 0.00 0.00 0.00 0.00 0.00 0.00 0.00 0.00 0.00 0.00 0.00 0.00 0.00 0.00 0.00 0.00 0.00 0.00 0.00 0.00 0.00 0.00 0.00 0.00 0.00 0.00 0.00 0.00 0.00 0.00
0.02 0.03 0.04 0.06 0.09 0.12 0.11 0.08 0.04 0.03 0.02 0.01 0.00 0.00 0.00 0.00 0.00 0.00 0.00 0.00 0.00 0.00 0.00 0.00 0.00 0.00 0.00 0.00 0.00 0.00 0.00 0.00 0.00 0.00 0.00 0.00 0.00 0.00 0.00 0.00 0.00 0.00 0.00 0.00 0.00 0.00 0.00
0.01 0.00 0.01 0.01 0.02 0.03 0.04 0.05 0.04 0.03 0.02 0.01 0.00 0.00 0.00 0.00 0.00 0.00 0.00 0.00 0.00 0.00 0.00 0.00 0.00 0.00 0.00 0.00 0.00 0.00 0.00 0.00 0.00 0.00 0.00 0.00 0.00 0.00 0.00 0.00 0.00 0.00 0.00 0.00 0.00 0.00 0.00
0.02 0.02 0.01 0.00 0.00 0.00 0.00 0.00 0.00 0.00 0.00 0.00 0.00 0.00 0.00 0.00 0.00 0.00 0.00 0.00 0.00 0.00 0.00 0.00 0.00 0.00 0.00 0.00 0.00 0.00 0.00 0.00 0.00 0.00 0.00 0.00 0.00 0.00 0.00 0.00 0.00 0.00 0.00 0.00 0.00 0.00 0.00
0.04 0.02 0.02 0.02 0.01 0.00 0.00 0.00 0.00 0.00 0.00 0.00 0.00 0.00 0.00 0.00 0.00 0.00 0.00 0.00 0.00 0.00 0.00 0.00 0.00 0.00 0.00 0.00 0.00 0.00 0.00 0.00 0.00 0.00 0.00 0.00 0.00 0.00 0.00 0.00 0.00 0.00 0.00 0.00 0.00 0.00 0.00
0.03 0.03 0.02 0.01 0.02 0.01 0.00 0.00 0.00 0.00 0.00 0.00 0.00 0.00 0.00 0.00 0.00 0.00 0.00 0.00 0.00 0.00 0.00 0.00 0.00 0.00 0.00 0.00 0.00 0.00 0.00 0.00 0.00 0.00 0.00 0.00 0.00 0.00 0.00 0.00 0.00 0.00 0.00 0.00 0.00 0.00 0.00
0.03 0.02 0.02 0.02 0.02 0.01 0.00 0.00 0.00 0.00 0.00 0.00 0.00 0.00 0.00 0.00 0.00 0.00 0.00 0.00 0.00 0.00 0.00 0.00 0.00 0.00 0.00 0.00 0.00 0.00 0.00 0.00 0.00 0.00 0.00 0.00 0.00 0.00 0.00 0.00 0.00 0.00 0.00 0.00 0.00 0.00 0.00
0.05 0.04 0.03 0.02 0.02 0.02 0.01 0.01 0.00 0.00 0.00 0.00 0.00 0.00 0.00 0.00 0.00 0.00 0.00 0.00 0.00 0.00 0.00 0.00 0.00 0.00 0.00 0.00 0.00 0.00 0.00 0.00 0.00 0.00 0.00 0.00 0.00 0.00 0.00 0.00 0.00 0.00 0.00 0.00 0.00 0.00 0.00
0.04 0.04 0.04 0.03 0.03 0.03 0.02 0.02 0.02 0.03 0.02 0.01 0.02 0.00 0.00 0.00 0.00 0.00 0.00 0.00 0.00 0.00 0.00 0.00 0.00 0.00 0.00 0.00 0.00 0.00 0.00 0.00 0.00 0.00 0.00 0.00 0.00 0.00 0.00 0.00 0.00 0.00 0.00 0.00 0.00 0.00 0.00
0.02 0.02 0.03 0.05 0.06 0.05 0.05 0.04 0.04 0.03 0.02 0.03 0.05 0.01 0.01 0.00 0.00 0.00 0.00 0.00 0.00 0.00 0.00 0.00 0.00 0.00 0.00 0.00 0.00 0.00 0.00 0.00 0.00 0.00 0.00 0.00 0.00 0.00 0.00 0.00 0.00 0.00 0.00 0.00 0.00 0.00 0.00
0.00 0.01 0.04 0.05 0.07 0.07 0.06 0.06 0.07 0.07 0.06 0.06 0.04 0.03 0.01 0.00 0.00 0.01 0.01 0.00 0.00 0.00 0.00 0.00 0.00 0.00 0.00 0.00 0.00 0.00 0.00 0.00 0.00 0.00 0.00 0.00 0.00 0.00 0.00 0.00 0.00 0.00 0.00 0.00 0.00 0.02 0.01
0.00 0.01 0.03 0.05 0.06 0.07 0.07 0.06 0.08 0.09 0.12 0.10 0.08 0.09 0.02 0.00 0.02 0.06 0.03 0.00 0.00 0.00 0.00 0.00 0.00 0.00 0.00 0.00 0.00 0.00 0.00 0.00 0.00 0.00 0.00 0.00 0.00 0.00 0.00 0.00 0.00 0.00 0.00 0.00 0.01 0.01 0.03
0.00 0.01 0.02 0.04 0.04 0.05 0.07 0.06 0.06 0.13 0.26 0.23 0.18 0.14 0.07 0.05 0.06 0.04 0.01 0.00 0.00 0.00 0.00 0.00 0.00 0.00 0.00 0.00 0.00 0.00 0.00 0.00 0.00 0.00 0.00 0.00 0.00 0.00 0.00 0.00 0.00 0.00 0.00 0.00 0.04 0.02 0.04
0.01 0.01 0.02 0.05 0.06 0.06 0.09 0.07 0.08 0.15 0.39 0.30 0.28 0.15 0.15 0.21 0.16 0.05 0.01 0.00 0.00 0.00 0.00 0.00 0.00 0.00 0.00 0.00 0.00 0.00 0.00 0.00 0.00 0.00 0.00 0.00 0.00 0.00 0.00 0.00 0.00 0.00 0.00 0.00 0.00 0.02 0.03
0.01 0.01 0.02 0.05 0.10 0.12 0.11 0.20 0.19 0.19 0.30 0.44 0.62 0.50 0.43 0.47 0.13 0.03 0.03 0.03 0.01 0.00 0.00 0.00 0.00 0.00 0.00 0.00 0.00 0.00 0.00 0.00 0.00 0.00 0.00 0.00 0.00 0.00 0.00 0.00 0.02 0.01 0.00 0.00 0.03 0.08 0.06
0.01 0.01 0.02 0.04 0.10 0.18 0.25 0.23 0.29 0.42 0.43 0.70 0.84 0.57 0.28 0.49 0.16 0.05 0.03 0.03 0.01 0.01 0.02 0.01 0.02 0.01 0.02 0.08 0.01 0.00 0.00 0.00 0.00 0.00 0.00 0.00 0.00 0.00 0.00 0.00 0.00 0.00 0.00 0.00 0.01 0.01 0.03
0.02 0.02 0.03 0.03 0.09 0.21 0.32 0.44 0.48 0.36 0.66 1.45 1.10 0.46 0.28 0.19 0.12 0.20 0.19 0.13 0.04 0.02 0.08 0.13 0.05 0.01 0.09 0.13 0.02 0.00 0.01 0.01 0.00 0.00 0.00 0.00 0.00 0.00 0.00 0.00 0.00 0.00 0.00 0.00 0.00 0.00 0.00
0.01 0.01 0.01 0.02 0.04 0.20 0.31 0.46 0.54 0.69 1.03 1.72 0.91 0.41 0.54 0.36 0.20 0.34 0.35 0.17 0.10 0.14 0.24 0.14 0.11 0.13 0.13 0.05 0.03 0.03 0.02 0.01 0.00 0.01 0.01 0.01 0.02 0.03 0.02 0.00 0.02 0.03 0.00 0.00 0.00 0.00 0.00
0.01 0.01 0.01 0.02 0.04 0.16 0.31 0.39 0.49 0.54 1.06 1.03 0.58 0.47 0.72 0.43 0.16 0.14 0.10 0.13 0.13 0.12 0.22 0.07 0.10 0.16 0.06 0.05 0.04 0.03 0.01 0.01 0.01 0.00 0.00 0.02 0.04 0.11 0.11 0.08 0.13 0.02 0.00 0.00 0.00 0.00 0.01
0.01 0.00 0.02 0.07 0.05 0.21 0.33 0.46 0.46 0.50 0.68 0.69 0.55 0.90 0.94 0.48 0.11 0.03 0.02 0.03 0.05 0.09 0.21 0.19 0.09 0.12 0.18 0.27 0.27 0.13 0.03 0.02 0.00 0.00 0.00 0.01 0.06 0.16 0.16 0.07 0.04 0.00 0.00 0.00 0.02 0.03 0.01
0.01 0.01 0.02 0.17 0.13 0.14 0.32 0.44 0.45 0.43 0.54 0.69 0.53 0.69 0.92 0.67 0.16 0.02 0.08 0.08 0.14 0.11 0.08 0.04 0.04 0.12 0.24 0.40 0.37 0.25 0.08 0.04 0.04 0.03 0.02 0.02 0.06 0.24 0.22 0.23 0.06 0.01 0.05 0.00 0.01 0.02 0.01
0.03 0.02 0.03 0.11 0.21 0.20 0.30 0.37 0.46 0.37 0.36 0.63 0.56 0.61 0.85 0.64 0.08 0.02 0.09 0.11 0.14 0.17 0.16 0.06 0.08 0.11 0.17 0.31 0.35 0.19 0.13 0.10 0.10 0.06 0.09 0.10 0.13 0.17 0.12 0.22 0.05 0.00 0.02 0.02 0.04 0.06 0.01
0.06 0.05 0.05 0.13 0.20 0.25 0.28 0.37 0.37 0.35 0.31 0.52 0.47 0.55 0.79 0.49 0.10 0.05 0.07 0.10 0.16 0.22 0.27 0.26 0.26 0.23 0.31 0.37 0.25 0.12 0.09 0.08 0.07 0.04 0.08 0.17 0.27 0.24 0.20 0.29 0.08 0.00 0.04 0.07 0.07 0.02 0.00
0.11 0.10 0.10 0.17 0.22 0.25 0.24 0.30 0.33 0.28 0.31 0.47 0.57 0.46 0.72 0.71 0.24 0.05 0.02 0.02 0.06 0.10 0.26 0.38 0.38 0.32 0.41 0.37 0.30 0.27 0.20 0.16 0.14 0.13 0.11 0.14 0.21 0.37 0.33 0.17 0.08 0.03 0.06 0.08 0.04 0.01 0.01